GEFSSGP_500_meanwind_132.txt.gz
Wind_Speed
15 15 15 16 18 20 21 20 18 16 17 16 15 15 14 12 10 8 6 4 3 3 3 4 3 3 2 2 2 1 1 2 2 2 3 3 3 3 2 2 1 1 1 1 1 1 1 2 2
14 14 14 15 18 20 21 19 17 17 17 17 16 15 13 11 10 8 6 4 3 2 2 3 3 3 3 2 2 1 1 2 2 2 3 4 3 3 3 2 2 1 1 1 1 1 1 1 2
13 13 13 16 19 19 19 19 18 18 18 17 16 14 13 11 10 8 6 4 3 2 1 2 2 3 3 4 3 3 2 2 2 2 3 4 4 4 3 3 2 2 1 1 1 1 1 1 2
12 13 14 16 18 18 17 18 19 18 17 16 16 14 13 13 11 9 8 6 4 3 1 2 3 4 4 4 5 4 3 3 3 3 4 4 4 4 4 4 3 3 2 2 1 1 1 1 1
10 12 14 16 17 16 16 18 18 18 17 17 16 16 15 14 12 11 10 8 6 4 1 2 3 4 5 5 5 5 4 3 3 4 4 4 4 4 4 3 3 3 3 2 2 1 1 1 1
8 10 12 15 15 14 15 16 16 17 18 19 17 16 15 14 13 12 12 10 8 4 2 2 4 5 6 7 7 6 5 4 4 4 3 4 4 3 3 3 3 3 3 3 2 2 1 1 1
7 11 13 14 14 13 12 13 15 16 17 17 17 17 16 14 13 12 11 11 8 5 3 2 4 5 7 8 7 7 6 5 5 4 4 4 3 3 3 3 3 2 2 2 2 1 1 1 1
7 10 13 13 11 10 10 11 14 15 16 17 17 16 16 15 13 12 11 10 8 6 3 2 3 4 6 8 8 8 7 6 6 5 5 4 4 4 4 3 3 2 2 2 1 1 1 1 1
6 9 10 10 8 7 7 10 12 14 15 17 17 16 16 15 14 13 11 10 9 7 4 3 4 5 6 8 9 9 9 8 7 6 6 5 5 4 4 4 3 2 2 2 1 1 1 1 1
5 6 7 7 5 6 7 8 10 13 14 16 17 15 15 14 14 14 12 11 9 8 6 4 4 5 6 7 8 9 9 9 8 7 7 6 5 5 4 4 4 3 2 2 2 1 1 1 1
3 3 4 4 4 5 7 8 9 11 13 14 16 15 15 14 14 14 13 12 10 9 7 5 4 4 5 6 8 9 10 10 9 8 7 7 6 5 5 4 4 3 2 2 2 1 2 2 1
4 1 1 1 2 4 6 7 8 11 13 15 17 17 16 16 15 14 13 12 10 10 8 6 5 5 5 6 8 10 10 10 9 9 8 7 6 5 5 4 4 3 3 2 2 1 1 2 2
5 3 1 2 2 3 5 7 8 10 12 15 17 16 17 16 15 14 12 11 10 10 9 7 7 5 3 4 7 9 10 10 10 9 9 8 7 6 6 5 4 4 4 3 2 1 1 2 2
3 2 1 1 1 3 5 7 8 10 12 14 16 16 16 16 16 14 12 11 10 9 9 8 6 5 4 4 5 7 10 10 10 10 10 9 8 7 6 6 5 4 4 4 3 2 2 2 2
3 1 1 1 1 3 5 6 8 11 13 16 17 16 16 17 15 14 12 11 10 10 9 9 8 6 5 5 5 7 8 10 11 11 12 11 9 8 7 6 6 5 4 4 3 3 3 3 3
3 2 2 1 1 4 6 8 10 12 14 16 18 17 17 16 16 14 13 12 11 10 10 9 8 7 5 4 5 6 8 9 10 10 11 12 11 10 8 7 7 6 5 4 4 3 3 3 3
5 5 4 2 2 4 7 10 12 14 16 17 18 18 17 17 16 15 14 13 12 11 10 9 8 8 7 4 4 6 7 8 9 11 11 12 12 11 10 9 7 7 6 5 5 4 4 3 4
7 6 4 3 4 7 9 11 13 15 18 18 18 18 18 17 17 16 15 14 12 11 10 10 8 8 7 5 4 5 6 8 10 12 12 12 12 11 11 10 9 8 7 7 6 5 5 4 4
9 7 4 3 4 8 10 11 14 15 17 18 18 18 18 17 17 17 16 14 11 10 9 9 8 7 7 6 5 5 6 8 10 10 12 12 12 12 12 11 10 9 9 8 7 7 7 7 6
11 8 6 5 8 10 11 12 14 15 16 17 18 17 16 16 17 16 16 13 11 9 8 8 7 7 6 6 5 4 6 7 8 10 10 10 11 11 12 11 11 10 10 10 9 9 9 9 8
11 9 8 9 10 12 13 13 14 16 16 16 17 18 16 16 16 16 15 13 10 9 8 7 7 7 6 6 6 5 5 6 7 8 9 9 10 11 12 12 11 11 11 11 10 10 10 10 10
11 10 11 12 13 14 15 15 16 16 16 15 16 17 16 14 16 16 14 11 10 9 8 7 7 7 7 6 6 4 4 5 6 7 9 10 11 11 12 12 11 11 10 10 11 11 11 11 11
12 12 13 14 15 15 16 17 16 17 16 15 16 16 16 15 15 14 12 10 9 8 8 7 7 7 7 6 6 5 5 5 6 8 9 10 11 12 12 12 12 12 12 11 11 12 12 12 12
14 14 15 15 15 15 15 17 16 17 17 15 16 16 16 15 14 12 11 10 9 8 7 7 7 7 6 6 6 5 5 6 7 8 10 11 11 12 13 13 13 13 13 13 13 13 12 13 13
15 15 16 15 15 13 13 15 16 18 18 15 15 15 16 15 14 12 11 10 9 8 8 7 7 7 6 6 6 6 6 7 7 8 10 12 12 13 13 13 13 13 14 14 14 14 14 14 14
14 16 16 15 15 14 14 14 15 17 18 15 13 14 14 14 14 12 11 9 8 8 8 7 7 7 7 7 7 7 7 8 7 8 9 11 12 12 14 14 14 14 14 14 14 14 15 15 15
15 15 16 17 17 18 16 15 17 16 15 15 14 14 14 13 12 11 10 10 9 8 8 7 7 8 7 7 6 7 7 8 7 9 9 10 11 12 12 13 14 15 15 15 15 16 16 17 17
16 16 18 18 19 20 19 18 17 17 16 14 14 14 13 12 12 10 9 10 9 9 8 8 8 8 7 6 6 6 7 7 7 8 9 10 10 11 12 12 13 14 15 16 16 16 17 17 18
16 17 19 19 20 21 21 20 18 18 18 17 16 16 14 12 11 10 9 9 9 8 9 8 8 8 7 7 7 7 8 8 8 8 9 10 11 12 12 14 14 15 16 16 17 17 18 18 19
19 18 18 20 20 21 22 21 20 20 20 19 17 16 13 10 9 10 10 9 9 9 10 10 9 8 8 8 8 9 9 9 9 10 10 10 10 11 12 13 14 14 16 17 18 19 18 19 19

GEFSSGP_500_meanwind_138.txt.gz
Wind_Speed
15 16 17 18 19 19 21 23 23 22 19 18 17 15 14 12 10 8 7 7 6 4 3 3 4 5 6 6 7 7 7 7 7 7 7 6 6 5 5 4 4 3 3 3 3 2 2 2 2
15 15 16 18 20 20 22 24 23 22 20 19 18 17 15 13 10 8 8 7 6 3 2 2 3 4 5 6 6 6 6 6 6 6 6 6 5 6 5 4 4 3 3 3 2 2 2 3 2
12 14 16 18 20 21 23 24 23 22 21 21 19 18 15 13 10 9 8 7 6 3 1 1 2 2 3 4 5 5 5 5 5 5 5 5 5 5 5 4 4 3 3 2 2 3 3 3 2
11 12 14 17 19 20 22 22 22 22 21 20 19 18 16 13 11 9 8 7 5 3 1 1 1 2 2 3 3 3 4 4 4 4 4 4 5 5 5 4 3 3 3 3 2 2 2 2 2
10 11 12 15 17 19 20 20 21 22 21 20 19 18 16 14 12 10 9 7 5 3 1 1 1 1 2 2 2 2 2 3 3 3 3 3 4 4 4 4 3 2 3 3 2 2 2 2 2
8 9 11 12 14 17 18 19 20 21 21 20 19 18 17 15 13 12 10 7 5 3 1 0 1 1 2 2 2 2 2 1 2 2 3 3 4 4 4 4 3 3 3 2 2 2 2 2 2
8 8 9 10 12 14 16 18 18 20 19 20 19 18 17 16 14 13 11 9 7 5 3 1 0 2 2 2 2 2 2 1 1 1 2 2 3 3 3 3 3 3 2 2 2 2 2 2 2
5 5 6 8 10 12 14 16 16 17 18 18 19 19 18 17 15 14 12 10 8 6 4 2 0 1 2 2 3 2 2 2 1 0 1 1 2 2 2 2 2 2 2 2 2 2 2 2 2
4 3 5 7 9 10 12 13 14 16 17 17 18 18 18 17 15 14 13 11 8 7 5 2 1 1 2 3 4 3 3 3 2 1 1 0 0 0 1 1 2 2 2 2 2 1 2 2 2
2 4 7 8 9 10 10 12 13 14 15 17 17 17 17 17 16 15 13 12 10 7 5 3 2 1 2 3 4 5 5 4 4 3 2 2 1 1 0 0 1 1 1 1 1 1 1 1 1
4 5 7 8 8 8 9 10 12 13 14 16 16 16 17 17 16 15 13 12 11 8 6 4 3 2 3 3 4 5 5 6 5 4 3 3 2 2 1 1 1 0 1 1 1 1 0 1 1
4 6 7 8 8 7 8 9 11 12 14 15 15 15 17 18 17 16 14 12 11 9 7 5 4 3 3 2 3 5 5 6 6 6 5 4 3 2 2 1 1 1 0 0 0 0 0 1 1
3 5 6 6 6 6 7 8 9 11 12 14 15 15 16 17 17 16 14 13 11 9 8 7 5 4 4 2 2 5 5 6 7 6 6 5 4 3 3 2 2 2 1 1 1 1 1 0 1
2 3 4 5 5 6 6 6 8 9 11 13 14 14 15 16 16 16 16 14 12 10 9 9 6 5 5 3 2 4 6 7 8 8 8 6 6 5 4 3 3 3 2 1 1 1 2 1 1
3 3 4 4 5 5 5 5 6 7 9 12 13 14 15 16 16 16 15 15 13 11 10 9 7 6 5 4 4 5 6 7 8 9 9 8 8 7 6 5 4 4 3 3 2 2 2 1 2
5 5 5 6 5 6 6 6 6 7 8 11 12 13 14 15 16 16 16 15 13 11 10 9 7 5 4 4 4 5 6 7 7 9 9 9 9 9 8 7 6 5 5 4 4 3 3 2 2
7 6 6 7 7 7 7 6 6 7 8 10 12 13 14 15 16 16 16 15 13 10 9 8 8 6 5 5 4 4 6 8 8 9 9 9 10 10 9 9 8 7 6 6 5 4 4 4 3
8 8 8 9 9 9 9 8 7 7 8 10 12 13 14 15 16 16 15 15 14 11 9 7 7 6 5 5 4 4 6 9 9 9 10 11 11 11 10 9 9 8 8 7 7 6 6 6 5
11 10 10 11 12 11 10 9 9 8 9 11 12 13 14 15 16 16 15 15 14 11 8 7 6 5 5 4 4 4 5 7 9 10 11 11 12 12 10 10 9 9 10 9 9 8 8 8 7
13 12 12 14 15 14 12 12 11 10 10 11 12 14 15 15 16 17 16 15 12 10 8 6 5 5 4 4 3 2 3 6 7 10 10 10 11 12 12 11 10 11 10 10 10 10 10 10 9
14 14 15 16 17 16 15 14 13 12 12 12 13 14 15 15 15 15 14 13 12 10 8 6 5 5 4 4 3 3 3 4 6 9 10 11 11 11 11 11 11 11 11 10 11 11 10 10 10
15 16 17 17 17 17 17 15 14 13 14 14 14 14 13 14 15 15 15 13 12 10 8 6 6 5 5 4 5 5 4 5 5 7 9 11 12 13 12 12 11 11 12 12 12 12 12 11 11
16 17 17 18 18 17 17 17 14 14 14 13 13 13 13 13 14 15 14 13 12 9 7 7 6 5 5 5 5 5 5 6 6 7 9 11 12 13 13 13 13 12 12 13 13 13 13 13 12
17 18 18 18 18 18 18 17 15 14 13 12 12 13 14 14 15 15 14 13 12 10 8 7 7 6 5 5 6 5 6 6 6 7 8 10 11 13 14 13 14 14 13 14 14 14 15 15 15
19 19 19 19 18 18 18 17 16 14 13 11 11 12 13 13 14 15 13 12 12 10 9 7 7 8 7 7 7 6 6 6 6 7 8 9 11 12 14 14 15 15 15 15 15 15 16 17 17
21 20 20 19 18 18 18 17 15 14 13 12 12 12 11 12 13 13 12 12 11 9 9 8 8 8 8 8 8 6 6 7 8 8 9 10 11 12 14 14 15 16 16 16 16 16 17 17 17
22 21 21 20 19 18 17 16 14 14 13 13 12 11 11 12 13 13 11 10 9 9 9 8 8 8 8 8 7 7 7 8 9 9 10 11 11 13 14 15 15 16 17 17 16 16 17 17 17
24 22 21 20 19 19 18 16 14 14 13 12 11 11 11 12 12 12 11 9 8 8 8 9 9 9 8 8 8 8 8 9 9 10 10 10 12 13 14 14 15 16 17 17 18 17 18 19 19
25 23 22 21 20 19 18 16 14 13 13 13 12 11 11 11 12 13 10 8 8 8 8 9 10 9 9 8 8 8 9 10 10 11 12 12 13 13 14 15 16 16 17 18 18 19 19 19 20
27 25 24 22 20 19 19 15 14 14 14 13 12 11 11 11 11 11 10 8 8 9 9 10 10 9 8 8 8 9 10 10 11 12 13 13 13 14 15 15 15 16 17 18 19 19 19 20 20

GEFSSGP_500_meanwind_144.txt.gz
Wind_Speed
18 18 18 17 20 18 16 18 18 17 16 16 15 14 13 12 11 10 9 8 7 7 6 6 6 6 7 7 8 9 10 10 10 10 10 9 9 9 8 7 7 6 6 5 5 5 5 5 5
17 17 17 18 19 15 16 17 18 17 16 16 15 15 14 12 10 9 8 7 6 6 6 5 5 6 6 7 7 8 9 9 9 9 9 9 9 8 7 7 6 6 6 5 5 5 5 5 5
17 16 16 18 15 14 16 17 17 17 16 16 16 15 14 13 11 9 7 6 5 5 5 4 4 5 6 7 7 7 8 8 9 9 9 9 8 8 7 7 6 6 5 5 5 5 5 5 5
15 16 17 16 13 14 15 16 16 17 17 16 15 15 14 13 12 10 8 6 5 4 3 3 3 4 5 6 7 7 7 7 8 8 8 8 8 7 6 6 6 6 5 5 5 5 5 5 5
15 16 16 13 13 13 14 14 16 17 17 16 15 15 14 13 12 11 9 7 5 4 3 2 3 4 5 6 6 6 6 7 7 7 8 8 7 6 6 6 6 5 5 5 5 5 5 5 5
15 16 12 11 11 13 13 14 15 16 16 16 16 15 15 14 12 11 10 8 6 4 3 2 2 3 5 5 6 6 6 6 6 6 7 7 7 6 6 6 6 6 5 5 5 5 4 4 5
14 14 11 11 11 11 12 13 14 15 15 16 15 15 15 14 13 12 11 9 7 4 2 1 2 3 4 6 6 5 5 6 6 6 6 6 6 6 6 6 6 6 5 5 5 5 5 5 5
12 13 11 10 10 10 11 13 14 14 15 15 15 16 15 14 13 13 12 10 8 5 3 1 2 3 4 5 5 5 4 5 6 6 6 6 6 6 5 5 5 5 5 5 5 5 5 5 5
11 11 8 8 9 10 11 12 13 13 14 15 15 15 15 14 13 12 12 11 9 6 3 1 1 2 3 3 4 4 5 5 6 6 6 6 6 6 5 5 5 4 4 5 5 5 5 4 4
10 8 7 8 8 9 10 11 12 13 14 14 15 15 15 14 14 12 12 11 8 6 3 1 1 1 2 3 4 5 5 6 6 6 6 6 5 5 5 5 5 5 4 4 4 5 4 4 4
8 7 7 7 7 8 9 10 10 12 13 13 14 14 15 14 14 13 12 11 9 6 4 2 0 1 2 3 4 5 6 6 7 7 6 6 5 5 5 5 5 5 4 4 4 4 4 3 3
5 6 6 6 7 7 8 8 9 10 10 11 12 13 13 14 13 13 12 11 9 7 5 3 2 2 3 3 3 5 6 6 7 7 7 6 6 6 5 5 5 5 5 4 4 4 3 3 3
4 4 5 5 6 6 6 7 8 8 9 10 11 12 13 13 13 13 12 11 10 8 6 5 4 3 3 3 3 4 5 6 7 8 8 7 6 6 6 5 5 5 5 4 4 4 3 3 3
2 3 3 5 5 5 5 5 6 7 8 9 10 11 12 13 13 13 12 12 10 10 8 6 5 4 3 4 4 5 5 6 7 8 8 8 7 7 6 6 5 5 5 4 4 4 3 3 3
1 2 3 4 4 4 4 5 5 6 7 8 10 11 12 13 13 13 13 12 11 11 10 8 6 4 4 4 4 5 6 6 7 7 8 8 8 8 8 7 6 5 5 4 4 4 3 3 3
1 2 3 3 4 4 4 4 6 6 6 8 10 11 11 12 13 13 14 13 12 11 10 9 6 5 5 5 5 5 6 6 6 7 8 8 9 9 9 8 7 6 6 5 5 5 4 4 3
2 2 3 4 4 4 4 4 6 6 7 8 10 11 12 12 13 13 14 13 12 12 10 9 8 7 6 5 6 7 7 8 7 8 8 9 9 9 8 8 8 8 7 6 6 6 6 5 4
4 4 5 6 5 5 5 6 7 7 7 8 10 11 12 12 13 13 14 13 12 12 10 9 8 7 6 5 5 6 6 7 8 8 9 10 10 9 9 9 8 8 8 7 7 8 7 7 6
6 6 7 7 6 6 7 7 8 8 8 9 10 11 12 12 13 13 14 13 12 11 10 10 8 8 6 4 4 5 6 6 7 9 9 10 10 10 10 9 9 9 9 9 9 9 8 8 8
7 7 8 8 8 8 8 9 9 9 9 9 10 11 12 13 13 13 13 13 12 11 10 10 9 8 7 5 4 4 5 5 7 8 9 10 11 11 11 11 10 10 10 10 10 10 10 9 9
10 9 10 9 9 9 9 10 11 10 10 9 10 11 12 13 13 14 14 14 13 12 10 9 8 7 6 6 5 4 5 5 5 7 9 10 11 12 12 11 11 10 10 10 11 11 10 10 10
12 11 10 10 9 10 10 8 12 11 11 10 10 11 12 12 13 14 14 14 13 12 10 9 7 6 6 6 5 5 5 6 6 7 7 10 11 12 12 12 12 11 11 11 11 12 12 12 12
14 13 12 11 11 11 12 10 11 12 11 12 11 11 11 12 12 13 14 13 11 11 10 8 7 7 7 6 6 7 7 6 7 8 8 8 11 12 12 13 13 13 13 12 12 13 13 13 13
15 14 13 12 11 12 12 11 9 11 11 12 11 11 11 11 12 13 13 12 11 11 10 8 7 7 8 8 8 8 8 7 8 8 9 9 10 12 13 14 14 14 14 13 13 13 14 14 15
16 14 13 12 12 12 13 12 11 12 11 10 11 11 11 11 11 12 13 12 12 12 11 9 8 8 9 9 9 8 8 8 8 8 9 10 10 11 12 14 14 15 15 15 15 14 14 15 16
17 16 14 12 11 13 15 12 12 11 11 10 10 11 11 10 11 12 13 13 12 11 10 8 7 7 8 9 9 9 10 9 9 10 10 11 11 12 13 13 14 15 16 16 17 16 16 16 17
20 18 17 16 15 13 14 13 11 11 10 10 10 10 10 9 10 12 12 13 12 11 9 8 8 8 8 9 9 10 9 9 10 10 11 11 12 12 13 14 15 15 15 16 18 18 19 18 18
22 21 20 17 15 14 14 13 10 10 10 10 10 10 9 9 10 11 11 12 10 9 9 8 7 8 9 9 9 9 10 10 10 10 11 12 12 12 13 14 15 16 17 17 17 17 18 19 19
24 23 21 19 17 14 12 12 13 11 10 10 10 9 9 10 10 10 11 10 10 8 8 8 7 8 9 9 9 9 9 10 10 11 12 12 13 13 14 15 14 15 16 17 17 19 19 19 20
25 24 22 20 19 16 14 13 14 12 11 11 11 10 9 9 10 11 11 10 9 8 8 8 8 9 9 9 9 9 9 10 11 12 13 13 14 14 14 15 15 16 16 16 17 18 19 19 20

GEFSSGP_500_meanwind_150.txt.gz
Wind_Speed
21 21 21 23 23 16 12 11 10 10 10 9 7 7 7 7 6 5 5 4 4 4 3 2 2 1 1 2 3 4 5 5 5 6 6 6 6 6 6 6 5 5 5 4 4 5 4 4 4
21 20 22 24 19 13 12 11 11 11 10 9 9 8 8 7 6 5 5 4 4 4 3 3 2 1 1 1 3 4 4 5 5 6 6 6 6 6 6 6 5 5 4 4 4 4 4 4 4
21 21 24 21 14 13 12 12 12 12 11 10 9 9 8 8 7 6 5 4 3 3 3 2 2 1 0 1 2 3 4 4 5 5 5 5 5 5 5 5 5 5 5 4 4 4 4 4 4
21 24 23 16 12 14 13 12 12 11 11 10 10 9 9 9 8 6 5 4 3 2 1 1 0 1 1 2 2 2 3 3 4 4 5 5 4 4 4 4 4 4 4 4 4 4 4 4 4
22 23 18 13 13 12 12 12 13 12 12 11 10 10 9 9 8 7 6 4 3 2 1 1 1 2 3 3 3 3 3 3 4 4 4 4 4 4 4 4 4 4 3 3 4 4 4 4 4
20 18 15 11 13 13 13 11 11 11 12 12 11 10 10 10 9 8 7 5 4 3 1 1 1 2 3 4 4 4 4 4 4 4 4 4 4 4 3 3 3 3 3 3 4 4 4 5 4
19 15 12 10 11 12 12 12 11 12 13 12 12 11 11 11 10 9 9 8 7 5 3 2 2 2 3 4 5 5 5 5 5 5 4 4 4 4 3 2 3 3 3 4 4 5 5 5 4
15 13 11 8 9 10 11 11 11 11 13 13 13 13 13 12 12 11 10 10 10 8 5 3 2 3 3 4 5 5 6 6 6 5 5 5 4 4 3 3 3 3 4 4 4 4 4 4 4
13 11 8 5 6 7 9 10 10 12 12 14 13 14 14 13 12 12 11 10 11 9 7 4 3 3 4 5 5 5 6 6 6 6 6 6 5 4 4 3 3 3 4 4 4 4 4 3 3
9 7 4 4 5 5 8 10 11 12 13 14 14 14 14 14 13 13 12 11 11 11 8 6 4 4 4 4 5 5 6 6 7 6 6 6 5 4 4 4 3 3 4 4 4 3 3 3 3
5 4 3 3 3 4 6 8 10 11 12 14 15 14 14 14 13 13 13 12 12 12 10 8 6 5 5 5 5 5 6 6 6 6 6 6 5 4 4 4 4 3 4 4 4 3 3 3 3
4 1 2 2 4 5 5 7 8 11 12 13 14 15 14 14 14 14 14 14 13 13 12 10 8 6 6 6 6 6 5 5 5 5 5 5 4 4 4 4 4 4 4 4 4 3 3 3 3
2 1 2 3 4 4 3 5 7 9 12 14 15 14 14 15 15 15 15 14 14 14 13 11 9 7 7 6 6 5 4 5 5 4 5 5 4 3 4 4 5 4 4 4 3 3 3 3 2
4 2 2 2 4 5 4 3 5 10 12 14 14 15 15 16 16 16 15 15 14 14 13 11 9 9 8 7 7 5 5 4 4 5 5 5 5 4 4 4 5 5 5 4 4 4 3 2 2
3 4 2 4 5 6 6 6 5 11 13 14 14 14 15 16 17 16 16 16 15 14 13 11 9 9 8 8 6 5 5 5 5 5 6 6 5 5 4 4 4 5 5 5 4 4 4 3 2
4 3 1 3 6 6 8 8 8 12 13 14 14 14 15 16 17 17 17 16 15 14 13 12 10 10 9 8 6 6 5 4 5 6 7 7 6 6 5 5 5 4 5 5 5 5 5 4 4
2 4 3 5 9 6 5 8 10 12 13 14 14 14 16 16 17 17 17 17 16 14 13 12 11 11 10 8 6 6 5 4 5 6 7 8 7 7 6 6 6 6 6 6 6 6 6 5 5
1 3 4 6 9 7 5 8 10 12 14 14 14 15 16 16 17 17 17 17 16 15 14 12 11 11 10 7 6 5 5 4 4 5 6 8 9 8 7 7 6 6 6 7 7 7 7 7 7
7 7 6 7 10 7 6 9 9 11 14 16 16 15 16 16 17 17 17 17 16 15 15 13 11 11 9 8 7 4 5 5 4 5 6 8 9 9 9 8 8 7 7 7 8 9 9 9 8
8 6 5 7 10 8 7 10 11 10 12 16 17 17 17 16 16 16 17 17 17 16 15 13 12 11 9 8 7 6 5 5 5 6 6 7 9 10 10 10 10 9 9 8 9 10 10 9 9
8 6 7 8 9 9 9 11 15 12 13 15 17 18 18 16 16 16 17 18 17 16 14 13 12 10 9 8 7 6 6 6 6 6 7 7 8 9 10 10 10 10 9 9 10 10 10 10 10
7 8 10 9 8 8 8 12 16 15 13 14 15 16 18 17 16 16 17 17 16 15 14 13 11 10 9 8 7 7 7 7 6 6 6 7 8 8 9 10 10 10 10 10 10 10 11 11 11
11 11 11 9 8 8 8 9 13 16 15 15 15 17 18 18 16 16 17 17 16 15 14 13 12 11 10 10 9 8 7 7 7 7 7 8 9 9 10 10 10 11 11 11 11 11 11 12 12
13 12 10 8 8 10 9 9 11 14 14 16 17 17 17 18 17 16 16 16 16 15 14 13 12 11 10 10 9 8 8 8 8 8 8 9 9 10 11 11 11 12 12 12 12 12 13 13 14
14 12 9 10 12 13 9 8 11 15 15 17 17 17 16 16 16 15 15 15 15 15 14 14 13 12 10 10 10 9 9 9 9 8 8 9 9 10 10 11 12 13 14 14 14 15 15 15 15
15 13 11 10 13 15 11 7 12 17 16 16 16 16 16 16 15 14 14 15 15 15 14 14 13 12 11 10 10 10 10 10 10 10 10 10 9 10 10 11 12 13 14 14 15 15 16 16 17
17 16 13 14 14 15 13 11 15 18 16 16 15 15 16 16 15 14 14 15 15 15 15 14 12 11 10 10 10 11 11 11 12 11 11 11 10 11 11 11 12 13 14 15 16 17 17 17 17
20 16 15 16 16 15 14 15 15 15 14 17 17 17 17 16 15 15 14 14 15 15 15 14 12 11 10 10 11 11 11 11 12 12 11 11 11 11 11 12 13 13 14 16 17 18 18 18 17
20 20 19 17 17 15 15 17 16 16 15 17 18 18 17 16 15 14 15 15 16 16 15 13 13 12 11 12 12 12 12 12 12 11 11 11 10 11 12 13 13 14 15 15 15 16 17 17 17
20 20 20 20 19 17 15 15 17 14 15 18 18 18 17 16 15 15 15 15 16 16 14 14 13 13 13 13 13 13 12 12 12 11 11 11 11 11 12 12 13 14 15 15 16 16 16 16 17

GEFSSGP_500_meanwind_156.txt.gz
Wind_Speed
22 22 21 20 21 21 21 22 20 18 17 17 16 15 14 12 10 9 7 5 6 6 6 5 5 5 5 4 3 3 2 2 1 1 2 2 2 2 2 2 2 2 2 1 1 2 3 3 4
22 22 21 22 22 23 24 23 20 19 18 17 16 15 13 11 10 8 7 6 6 7 6 5 5 5 4 3 3 2 2 1 2 2 2 2 2 2 2 2 2 2 2 1 1 2 3 3 3
20 21 22 24 24 24 24 23 22 20 19 18 16 15 13 11 10 9 8 7 7 6 6 5 4 4 4 3 3 2 2 2 2 2 2 2 2 2 2 2 2 2 2 2 2 2 3 3 3
19 21 22 23 23 24 23 23 22 21 20 19 18 16 14 12 11 10 9 8 7 7 5 4 3 3 2 2 2 2 2 2 2 2 2 2 2 2 2 2 2 3 3 2 2 2 3 3 3
16 20 22 22 23 23 23 24 21 20 20 19 18 17 15 14 12 11 11 10 8 7 6 4 2 2 1 1 0 1 1 2 2 2 2 2 2 2 2 2 2 3 3 3 3 3 3 3 3
14 18 19 20 21 21 22 23 21 20 20 19 18 18 16 15 13 12 11 11 10 9 7 5 3 2 1 1 1 1 1 2 2 2 2 2 2 3 2 2 2 3 3 3 3 3 3 4 3
15 18 18 18 18 19 20 21 19 20 20 19 18 17 16 15 14 13 12 11 10 9 8 6 4 2 1 1 1 2 2 2 2 2 2 3 3 3 3 2 2 2 3 3 3 3 3 3 3
15 16 16 16 16 17 18 19 18 19 20 20 19 18 16 15 14 13 12 12 10 9 8 6 4 3 2 2 1 2 2 3 3 3 3 3 3 3 3 2 2 2 2 2 3 3 4 3 3
14 13 13 14 14 15 17 17 17 19 20 20 21 19 17 15 15 14 13 12 11 10 8 7 5 3 2 2 2 2 2 3 3 3 4 3 3 3 2 2 2 2 2 2 3 3 3 3 3
12 11 11 11 13 15 15 15 17 19 21 21 20 19 18 17 15 15 14 13 13 12 10 9 6 4 3 3 3 2 3 3 3 3 4 3 3 3 2 2 2 3 3 3 3 2 3 3 2
11 8 9 10 12 13 13 14 16 19 19 19 19 19 19 18 17 16 15 15 13 12 11 10 8 6 3 3 3 2 2 2 2 3 4 4 3 2 2 3 3 3 3 2 2 2 2 2 2
8 6 6 7 9 11 12 13 16 18 18 19 19 18 19 19 18 16 16 15 14 14 11 10 8 7 5 3 2 1 1 1 1 2 3 4 3 3 3 3 3 3 3 3 2 2 2 2 2
8 5 4 5 8 11 12 13 14 16 17 18 18 17 17 17 18 17 17 16 15 15 13 10 8 7 6 5 4 2 1 1 1 1 2 3 3 3 3 3 3 4 4 3 3 3 2 2 2
8 5 4 5 7 11 12 13 14 16 17 18 18 18 17 17 17 18 17 16 16 15 14 12 9 8 7 5 4 3 2 2 2 1 2 2 3 3 3 3 3 4 4 4 3 3 2 2 2
7 6 5 5 7 10 11 13 15 15 16 17 18 18 18 18 17 17 17 17 17 16 15 13 11 10 8 5 4 3 2 1 1 1 2 3 3 3 3 3 3 4 4 4 3 3 2 2 3
8 6 5 5 6 9 11 13 15 16 15 16 17 18 18 18 18 17 17 17 17 16 15 13 12 11 10 6 4 3 2 1 0 1 2 3 4 4 4 3 3 3 4 4 4 4 4 4 4
7 5 3 3 4 8 11 14 15 16 17 17 17 17 18 18 17 17 16 17 17 16 14 13 12 10 10 7 5 4 4 2 1 1 2 3 5 5 5 4 4 3 3 4 5 5 5 5 5
6 4 3 2 5 8 12 14 15 16 18 19 19 17 17 17 16 15 15 15 15 16 15 13 11 10 9 7 6 5 3 3 2 1 1 2 4 4 5 5 5 4 4 5 6 6 6 7 6
5 4 3 1 4 8 12 13 14 15 17 18 19 19 18 15 14 14 14 14 14 14 14 12 11 8 8 7 7 6 3 3 2 2 2 2 3 4 6 6 6 6 6 6 6 7 7 7 7
8 6 4 3 4 7 10 12 12 13 15 17 18 18 20 18 15 14 14 14 13 13 13 11 10 7 7 7 7 6 5 3 2 2 3 3 3 5 6 7 7 7 7 7 7 7 7 7 8
10 9 8 7 7 9 11 11 11 11 14 16 17 17 18 19 16 14 14 14 13 13 12 11 9 7 6 6 6 6 6 5 4 3 4 4 4 5 6 7 7 8 8 8 8 8 8 8 9
12 12 11 11 10 11 11 11 10 11 12 14 16 17 18 18 16 15 14 14 12 12 11 10 9 8 6 5 6 6 6 5 5 4 4 4 4 5 6 7 8 8 9 9 10 9 9 9 10
14 14 12 12 12 12 12 12 11 12 11 13 16 17 18 18 16 15 13 12 12 11 10 10 10 8 6 6 6 6 5 5 5 5 5 5 5 6 7 8 9 9 10 11 11 10 11 11 11
15 15 14 12 11 11 11 12 11 11 12 13 15 16 17 17 16 15 13 11 11 11 10 10 9 9 7 6 6 6 5 5 5 5 5 6 6 7 8 9 10 11 11 12 12 12 12 12 13
17 16 15 13 11 9 9 11 11 10 11 13 14 16 16 15 15 15 13 12 12 11 10 9 9 8 8 6 6 6 6 5 5 6 6 7 7 7 8 9 10 11 12 13 13 13 14 14 14
16 17 15 14 12 10 10 11 11 10 10 12 13 14 15 15 14 14 13 12 12 11 11 9 8 8 7 6 6 6 6 6 6 7 7 7 7 8 8 9 9 10 11 12 13 14 15 15 16
16 17 16 15 14 13 11 11 10 12 11 12 12 13 15 15 14 13 13 12 11 11 11 10 9 8 7 6 6 6 6 7 7 7 7 7 8 8 8 8 9 10 10 12 14 15 15 16 17
16 16 18 17 16 15 14 13 11 10 12 13 13 13 15 15 14 14 13 13 12 11 10 10 9 8 7 7 6 6 7 8 8 8 8 8 8 8 8 9 9 10 12 12 13 14 13 14 14
17 16 18 19 18 17 17 16 13 12 13 12 12 12 15 15 14 14 14 13 12 11 10 10 9 9 8 7 7 7 8 8 9 9 9 8 8 8 8 8 9 10 11 11 12 12 12 12 13
19 17 18 20 20 19 20 19 16 15 14 13 13 13 14 13 13 13 13 12 12 11 10 9 9 9 9 9 8 8 9 9 10 10 9 9 9 8 8 8 9 10 11 12 12 12 12 13 14

GEFSSGP_500_meanwind_162.txt.gz
Wind_Speed
23 23 22 22 23 21 22 24 23 22 20 19 18 17 15 13 11 10 9 8 6 5 5 5 6 7 7 8 8 8 8 7 7 6 6 6 5 4 4 4 3 3 3 4 4 4 4 4 4
22 22 22 22 23 23 25 25 24 22 20 19 19 17 16 14 12 10 9 8 6 5 5 6 6 6 7 7 7 7 7 7 7 6 6 5 5 5 4 3 3 3 3 3 3 3 3 3 3
22 21 22 22 23 25 26 25 24 22 20 20 19 18 16 14 12 11 10 8 6 5 5 5 5 6 6 6 6 6 6 6 6 6 5 5 4 4 4 4 4 3 3 3 3 2 3 3 3
21 21 21 21 23 24 25 25 24 23 21 20 19 18 16 14 12 11 10 8 6 5 5 5 5 5 5 5 6 6 5 5 5 5 5 5 5 4 5 4 4 4 3 3 2 2 3 3 3
19 20 21 22 23 24 25 25 25 24 22 20 19 18 16 14 12 11 10 8 7 6 5 5 5 4 4 4 5 5 4 4 4 4 4 4 4 4 4 4 4 3 3 2 2 2 2 2 2
18 19 21 22 24 25 25 25 25 24 23 21 20 19 17 15 13 12 10 8 7 6 6 6 5 4 4 3 3 3 3 4 4 3 4 3 3 3 3 4 4 3 2 2 2 2 2 2 3
17 18 21 22 23 24 25 25 24 24 23 22 20 19 17 16 14 13 11 9 8 7 6 6 5 4 4 3 3 2 3 3 3 3 3 3 3 2 2 3 3 2 2 2 2 2 2 2 2
16 18 19 21 22 23 24 24 23 23 23 22 21 19 18 16 15 14 12 11 9 8 7 6 5 4 3 3 2 2 2 2 2 2 2 2 2 2 2 2 2 2 2 2 2 2 2 2 2
13 16 18 20 21 22 23 23 23 22 22 21 21 20 18 17 16 15 13 12 11 9 8 7 5 4 2 2 2 2 1 1 1 2 2 2 1 2 2 2 1 2 2 2 2 2 2 2 2
11 14 16 18 20 21 22 22 22 23 22 21 20 20 19 17 16 15 14 13 12 11 10 9 7 5 3 2 1 1 1 1 1 2 2 2 1 1 1 2 2 1 2 2 2 2 2 2 2
8 11 14 16 18 20 20 21 22 22 22 22 21 20 18 17 17 16 15 15 13 12 11 10 9 7 5 3 2 1 1 1 1 2 3 2 2 1 1 2 2 2 2 3 3 3 2 2 2
6 9 12 14 16 17 19 19 21 21 21 20 20 19 18 18 17 16 16 15 14 12 11 11 10 8 6 4 3 3 2 2 2 2 3 3 2 1 2 2 2 3 3 2 2 2 2 1 1
4 7 10 12 14 15 17 18 19 20 20 19 19 19 19 18 18 18 18 17 15 13 11 11 10 9 7 5 4 3 2 2 2 3 3 3 2 2 2 2 2 3 3 2 2 1 1 1 1
3 6 9 10 12 13 15 17 17 18 18 18 18 18 18 18 18 18 18 17 16 14 12 11 11 10 8 5 4 3 2 2 2 2 2 2 1 2 2 3 3 3 3 2 2 1 1 1 1
2 5 7 8 10 11 12 14 16 16 17 18 18 18 19 19 18 18 17 15 15 14 12 11 10 9 7 6 4 2 2 2 2 2 2 2 1 1 2 4 4 3 3 3 3 2 2 2 2
2 3 4 6 8 8 10 12 14 15 16 17 18 19 19 19 18 18 16 15 14 13 12 11 10 8 7 7 6 4 4 2 1 1 2 2 1 2 3 4 4 3 4 4 4 3 2 2 3
4 2 1 3 5 6 8 10 12 13 14 16 17 18 19 18 18 17 16 15 13 12 11 10 9 7 7 6 5 4 4 2 0 1 1 1 1 2 3 3 4 4 4 4 5 4 4 3 4
7 5 3 1 2 4 6 8 10 11 12 14 15 17 18 18 18 17 16 15 14 12 10 9 8 7 6 6 5 4 3 2 0 1 1 1 1 2 3 4 4 4 4 4 5 6 5 5 6
9 7 6 4 4 4 5 6 8 9 11 12 14 16 17 17 17 17 17 16 14 12 11 9 8 6 5 5 5 4 4 2 1 1 2 2 3 3 4 4 5 5 5 5 6 7 7 7 7
11 9 7 6 6 5 5 6 7 8 10 11 13 15 16 17 17 16 15 15 13 12 11 10 9 7 5 5 4 4 4 3 2 2 3 3 3 4 5 5 6 6 6 6 7 8 8 8 8
12 11 10 9 8 7 6 6 7 9 10 10 12 13 15 16 16 16 14 14 13 11 11 10 9 7 6 5 4 4 3 3 3 3 3 4 5 5 5 6 7 7 7 8 8 8 9 9 10
15 14 13 12 10 9 8 8 8 9 9 10 11 12 14 15 16 15 14 13 13 11 10 9 8 7 5 5 5 4 4 3 3 4 4 4 5 6 6 7 7 8 9 9 10 10 10 10 10
17 16 15 14 13 12 11 10 8 8 9 9 10 11 13 15 15 14 13 13 13 11 10 9 8 6 5 5 5 5 4 4 4 4 4 5 6 8 8 8 9 10 10 11 11 11 12 12 13
18 18 17 16 15 14 12 11 9 9 9 9 10 11 12 13 14 14 13 12 12 11 10 9 8 7 6 6 5 5 5 5 5 5 5 6 7 8 8 9 10 10 11 12 13 13 14 14 14
20 19 19 18 16 15 13 12 11 10 10 9 11 11 11 12 13 14 13 12 11 11 10 9 9 8 7 6 5 6 6 5 5 5 6 6 6 7 8 9 10 11 11 12 13 14 14 15 15
21 20 20 20 18 16 15 13 11 10 9 10 10 11 11 12 13 13 13 12 12 11 10 9 9 8 7 6 6 6 6 6 6 5 5 6 7 8 8 9 10 11 11 13 13 14 14 15 15
23 22 20 21 20 18 17 15 13 11 10 10 11 10 10 12 13 13 13 12 11 11 11 10 9 8 7 7 7 6 7 6 6 5 5 6 7 8 9 10 10 10 11 12 13 13 13 14 15
25 23 22 21 21 20 18 15 14 12 11 11 10 10 10 11 12 12 12 12 12 12 11 10 9 8 8 8 7 7 7 7 6 6 7 7 8 8 8 9 9 10 10 11 12 12 12 13 14
26 25 24 23 23 21 19 17 14 13 12 11 10 10 10 11 11 12 12 12 12 12 12 10 9 9 9 8 8 8 7 7 7 8 8 8 8 9 9 9 10 10 11 11 11 12 13 13 14
28 26 25 24 23 22 21 18 15 15 13 12 11 11 11 11 11 11 12 12 12 12 12 11 10 9 9 9 9 8 8 8 8 9 9 9 10 10 10 10 10 11 11 11 11 12 12 13 14

GEFSSGP_500_meanwind_168.txt.gz
Wind_Speed
20 19 19 18 22 18 18 18 17 16 15 15 14 14 13 12 10 9 8 8 7 6 5 4 4 5 6 7 7 8 9 10 10 9 9 9 9 9 8 7 7 7 7 6 6 6 6 5 5
20 19 19 21 20 18 18 19 18 17 16 15 14 14 13 12 11 10 9 8 7 6 5 5 4 4 5 6 7 8 8 9 9 9 9 9 9 8 7 7 7 7 6 6 5 6 6 6 5
20 19 20 21 18 18 18 19 19 18 17 16 15 15 14 13 12 10 9 9 7 6 5 4 4 4 4 5 6 7 8 8 9 9 9 8 9 8 7 7 7 7 6 6 6 6 6 6 5
19 20 21 18 18 18 19 20 19 19 18 17 17 16 15 14 12 11 10 9 7 5 4 3 3 3 4 4 5 6 7 8 8 8 8 8 9 8 7 7 7 7 7 6 6 6 5 5 5
18 21 19 18 19 20 20 20 20 21 20 19 18 18 17 15 14 12 11 9 7 6 4 3 3 3 3 4 5 5 6 7 8 8 8 8 8 8 7 6 6 7 7 7 6 5 5 5 6
19 20 17 18 19 21 21 21 22 22 20 19 19 18 17 17 15 13 11 10 8 7 5 3 2 2 3 4 4 5 6 6 7 7 8 8 7 7 7 6 6 6 6 6 6 5 4 5 6
18 17 17 18 19 21 21 21 22 22 21 20 19 19 18 17 15 14 12 10 8 7 5 4 2 2 2 3 3 4 5 5 7 7 8 7 7 7 7 7 6 5 5 6 6 5 4 5 5
15 16 16 17 19 20 20 21 21 22 21 20 19 19 19 18 16 14 13 10 9 7 6 4 3 1 1 2 3 4 4 5 6 7 7 7 6 7 7 7 6 6 5 6 6 5 5 5 5
14 14 13 15 18 18 19 20 20 21 21 20 20 20 19 18 17 15 14 11 9 8 7 6 3 2 1 2 3 3 4 5 6 6 6 6 5 6 7 7 6 6 6 6 6 6 5 5 5
13 11 12 15 16 17 18 19 20 21 21 20 20 19 18 18 17 16 14 12 10 9 7 6 4 2 2 2 2 3 4 5 5 6 6 5 5 5 6 6 6 6 6 6 6 6 5 5 5
11 11 12 14 15 16 17 18 19 20 20 19 19 19 19 18 18 17 15 13 11 9 8 7 6 4 2 2 3 3 4 4 4 5 5 5 5 5 5 6 6 6 6 6 6 5 5 5 5
8 9 10 12 13 14 16 17 18 19 19 18 18 19 19 18 18 17 16 14 11 9 8 8 7 6 4 3 3 3 3 4 4 5 5 5 5 5 5 5 6 6 5 6 6 5 5 5 5
6 7 8 10 11 12 14 15 16 18 17 18 18 19 18 17 18 17 16 15 13 10 9 8 7 6 5 3 2 3 3 3 4 5 5 5 5 5 5 5 5 5 5 5 5 4 5 5 4
5 6 6 8 9 10 12 13 14 16 16 17 18 18 18 17 17 17 16 15 13 11 10 8 7 6 5 3 3 3 3 3 4 5 5 5 5 4 5 5 5 4 4 5 4 4 4 4 4
5 4 4 5 7 9 10 12 12 13 15 16 16 17 17 17 18 18 17 15 13 11 10 8 7 7 6 5 3 3 3 3 4 4 5 4 4 4 4 5 4 4 4 4 4 4 4 4 3
4 3 1 2 4 6 8 9 10 11 13 14 15 16 16 16 17 17 16 15 14 11 10 9 8 6 6 5 4 3 2 2 3 3 3 4 4 4 4 4 4 4 4 4 4 4 4 4 3
4 2 2 0 3 4 6 6 7 9 11 12 14 14 15 16 15 15 15 14 13 12 11 10 8 6 6 5 3 2 2 2 2 2 3 3 3 4 4 4 4 4 4 5 4 4 4 4 4
6 4 3 2 1 2 4 5 6 8 10 11 12 13 14 15 15 15 15 14 13 11 11 10 9 7 5 4 3 2 1 1 1 1 2 2 3 3 3 4 4 4 4 5 5 5 5 5 5
7 5 5 4 3 2 3 4 5 7 8 10 12 12 13 14 15 14 14 14 13 12 11 11 10 7 6 5 3 2 1 0 1 1 2 2 3 3 3 4 5 5 5 6 6 6 6 7 7
7 6 6 5 4 3 3 4 5 6 7 9 11 12 13 14 15 15 14 14 13 12 12 11 10 8 6 4 4 2 2 1 1 1 1 2 3 4 4 4 5 6 6 7 8 8 8 8 9
9 8 8 7 5 5 4 5 6 6 7 8 10 11 12 14 14 14 14 14 13 12 11 11 10 8 6 5 4 3 3 2 2 2 2 3 4 4 4 5 5 7 8 8 8 9 9 9 10
12 10 9 8 7 7 5 5 8 7 7 8 9 11 12 13 13 14 14 13 13 13 11 11 10 8 7 6 5 3 3 3 3 3 3 3 4 4 5 5 6 7 7 8 9 10 10 10 10
14 12 11 10 9 9 8 6 8 9 8 7 8 10 11 12 13 14 14 13 12 12 11 10 10 9 7 6 5 4 3 3 4 4 4 4 4 5 6 6 7 8 8 9 10 11 11 11 12
15 14 13 12 10 10 10 8 7 9 8 7 8 10 11 11 12 13 13 12 12 12 11 10 10 9 8 6 5 4 4 4 5 5 5 5 5 5 6 7 8 9 9 10 10 10 11 12 13
18 15 13 12 11 12 11 9 9 8 8 8 9 10 10 11 12 13 13 12 12 11 10 10 10 9 8 7 5 5 5 5 6 6 6 6 6 6 7 7 8 9 9 10 10 11 11 12 12
20 18 15 13 12 12 13 11 10 9 9 9 10 10 10 11 11 12 12 11 11 11 10 10 10 9 8 8 6 6 6 6 6 7 7 7 7 7 8 8 8 9 10 11 11 12 12 12 12
23 21 18 17 15 13 13 13 11 11 11 10 10 10 10 10 10 11 12 11 11 10 10 10 9 9 8 8 7 7 7 6 7 7 8 8 7 8 9 9 10 10 10 11 12 12 13 13 13
25 23 21 18 17 15 14 13 12 12 11 11 11 10 10 10 11 11 11 10 10 10 10 10 9 9 9 8 8 8 7 7 7 7 7 7 7 8 8 9 10 10 10 11 12 12 13 14 14
26 25 23 20 19 16 13 13 14 13 12 12 11 10 10 10 11 11 10 10 10 10 9 9 9 9 9 9 9 8 8 8 8 8 8 8 9 9 9 10 10 10 11 11 11 12 13 14 14
28 26 24 23 22 19 16 14 16 14 13 13 13 11 11 10 10 11 10 10 10 10 10 9 9 9 9 9 9 9 9 9 9 9 10 10 10 10 10 10 11 11 11 11 12 13 14 14 14

GEFSSGP_500_meanwind_174.txt.gz
Wind_Speed
22 23 24 25 24 15 14 13 12 11 11 10 9 9 8 8 8 7 7 7 7 6 6 6 5 4 3 2 2 3 4 5 7 7 7 8 8 7 7 7 7 7 7 7 6 6 6 5 5
22 22 26 26 16 14 14 13 13 13 12 11 10 10 9 9 8 8 7 7 7 7 6 6 5 3 3 2 2 2 3 4 5 5 6 7 7 7 7 6 7 7 6 6 6 6 5 5 5
25 26 28 18 12 13 14 14 14 13 13 12 12 11 10 9 9 9 8 8 7 6 6 5 4 3 2 2 2 2 3 3 4 5 5 6 6 7 7 6 6 6 6 6 6 6 5 5 5
25 29 23 13 13 14 15 15 15 14 14 14 13 12 12 11 10 9 9 8 7 7 6 5 5 4 3 1 1 1 2 3 4 5 5 6 6 5 6 6 5 6 6 5 5 5 5 4 4
26 25 16 13 14 15 15 14 14 15 15 15 14 13 13 12 12 11 10 9 8 7 6 6 5 4 3 2 1 0 2 3 3 4 5 5 5 5 5 5 5 5 5 5 5 5 5 5 5
24 18 12 12 14 15 15 14 14 16 16 16 15 14 14 13 12 11 11 10 8 7 6 5 4 3 2 1 1 1 2 3 3 3 4 4 4 5 5 5 5 5 5 5 5 5 5 4 5
19 14 11 12 12 14 14 13 14 15 16 16 17 16 15 15 13 12 12 11 10 8 7 6 4 3 2 2 1 1 2 3 3 4 4 3 4 4 4 4 4 5 6 6 5 5 5 5 5
13 13 11 9 10 12 13 13 14 15 16 17 17 17 17 16 15 13 12 12 11 10 8 7 5 3 3 2 2 2 2 3 3 4 4 3 3 4 4 3 4 4 5 5 5 5 5 4 5
10 11 9 8 9 11 11 13 15 16 17 18 18 17 17 17 16 15 14 13 12 11 9 8 7 5 2 1 1 1 2 2 3 4 4 4 4 4 4 4 4 4 5 5 5 5 5 5 5
8 10 7 7 8 10 12 14 16 17 18 18 18 18 18 18 17 16 16 14 13 12 11 10 8 6 3 1 1 1 1 2 3 3 4 3 3 3 4 4 5 5 5 5 5 5 5 5 5
5 6 6 7 7 10 12 14 15 16 18 19 19 18 18 19 19 18 17 16 15 13 12 11 10 8 5 2 2 1 1 1 1 2 3 2 2 3 4 4 4 4 5 5 4 4 5 5 5
4 5 6 6 7 9 10 11 12 14 17 18 19 19 19 19 19 19 19 18 16 14 12 12 11 10 8 5 4 2 1 1 1 2 2 2 2 3 4 4 4 4 4 4 4 4 4 4 4
2 3 4 5 7 7 8 10 12 15 16 17 19 19 19 20 20 19 19 18 17 14 13 12 11 10 9 7 4 4 2 1 1 1 2 1 2 2 3 3 3 4 4 4 3 3 4 4 4
2 2 3 5 6 6 6 9 13 16 16 17 18 19 20 20 20 19 18 18 17 15 13 12 11 11 9 8 5 4 2 2 1 1 1 1 1 1 2 2 3 2 3 3 3 3 3 3 3
3 1 2 4 6 9 7 7 10 14 16 17 18 19 20 20 20 20 18 18 17 15 13 13 12 11 10 9 7 5 3 2 2 1 0 1 1 1 2 1 2 2 3 3 3 3 3 3 3
1 2 2 2 6 8 10 10 11 13 15 17 18 19 20 20 20 19 19 18 17 15 14 13 13 12 11 9 8 6 4 3 2 1 1 1 1 1 2 2 2 2 2 3 3 3 3 3 3
2 5 4 5 7 6 10 11 12 12 14 15 17 18 19 19 19 19 19 18 17 16 15 14 12 11 11 9 9 8 6 4 2 1 1 1 2 2 2 3 3 2 2 2 2 3 4 4 4
5 6 5 5 7 5 7 10 10 11 14 14 16 17 17 18 19 19 18 18 17 16 15 14 12 11 11 9 9 9 6 4 3 2 2 2 2 2 2 3 3 3 3 3 3 4 4 4 5
8 6 5 6 7 5 6 7 10 11 12 13 14 15 16 17 18 19 18 18 17 16 16 15 12 11 11 10 8 9 7 5 4 3 2 2 2 2 3 3 3 4 5 5 5 5 5 5 6
9 7 6 7 7 6 7 7 7 10 12 13 13 14 15 16 17 18 19 18 18 17 16 15 13 12 11 10 9 8 7 5 4 4 3 2 2 3 3 4 3 4 5 5 6 6 6 7 7
10 10 9 9 8 7 8 10 8 9 11 13 14 14 14 16 16 17 18 18 18 17 16 15 13 12 11 10 9 8 7 6 5 5 4 4 3 3 3 4 4 5 5 6 6 7 7 8 8
11 11 11 10 9 7 7 13 11 9 10 13 14 15 15 15 16 16 17 17 17 16 15 14 13 12 11 10 9 8 7 6 6 5 5 5 4 4 4 4 5 6 6 6 6 7 8 8 9
14 13 12 10 9 9 8 11 11 8 9 11 12 14 14 15 15 15 16 16 16 15 15 14 13 12 12 11 9 8 8 7 6 6 6 6 5 5 5 5 6 6 7 7 7 8 9 9 10
16 13 11 9 9 12 9 10 12 9 9 11 12 14 14 13 14 14 15 15 15 15 14 14 13 12 11 11 10 9 8 7 7 7 7 7 6 6 6 6 7 7 8 8 8 9 9 10 10
16 13 10 10 11 13 10 11 14 12 12 13 13 14 14 13 12 13 13 14 14 14 14 14 13 12 12 11 10 9 9 7 7 8 7 7 7 6 6 7 7 8 8 9 9 10 11 11 11
17 15 14 12 11 12 10 10 13 15 16 14 13 13 13 12 12 12 13 13 14 14 13 13 13 13 12 11 10 10 9 8 8 8 8 8 8 8 8 9 8 8 9 10 10 11 11 12 12
19 18 16 15 15 15 12 10 15 18 17 14 13 13 13 12 12 11 12 12 13 13 13 13 13 13 13 11 11 10 10 9 9 9 9 9 9 9 10 10 9 10 10 10 10 10 11 12 13
22 20 17 18 18 16 14 14 15 17 17 16 15 14 14 13 12 11 11 12 12 12 12 13 13 13 13 12 11 11 10 10 10 10 10 10 10 10 11 11 10 10 10 10 10 10 11 12 13
22 23 22 20 19 17 17 15 14 17 17 16 15 15 15 13 12 12 12 12 12 12 12 12 12 12 13 13 12 11 11 11 11 11 10 11 11 11 11 11 12 12 12 11 11 11 11 12 13
22 22 22 23 22 21 18 18 15 15 16 16 15 15 16 14 13 14 13 13 12 12 12 12 12 12 12 13 13 12 12 12 12 11 11 12 12 12 12 12 13 13 13 12 12 13 13 13 13

GEFSSGP_500_meanwind_180.txt.gz
Wind_Speed
22 24 24 24 25 23 24 24 22 20 18 17 16 15 14 12 12 10 10 9 10 9 8 8 8 7 6 5 4 3 3 2 2 2 3 4 4 4 4 5 5 5 6 6 5 6 5 5 5
22 23 24 26 26 25 25 25 22 20 19 18 16 16 14 13 11 10 10 9 9 9 8 8 7 7 6 5 4 3 2 2 2 1 1 2 3 4 4 4 5 5 5 6 5 5 5 5 5
21 23 25 26 25 25 26 25 23 22 21 19 17 17 15 13 12 11 10 10 9 9 8 8 8 6 5 5 4 3 2 1 2 2 1 2 2 3 3 4 5 5 5 5 5 5 5 5 5
20 22 24 25 24 25 26 25 23 22 21 20 19 17 15 13 12 12 11 11 9 8 7 6 6 6 5 4 4 3 2 1 1 2 2 2 3 3 2 3 4 4 4 4 5 5 5 5 5
18 20 22 23 23 24 25 25 23 22 21 21 20 18 16 15 13 12 12 11 9 8 7 6 6 5 4 3 3 2 2 1 1 1 2 2 3 3 3 3 3 3 3 4 4 5 5 5 4
16 19 20 21 22 23 24 24 22 22 22 21 21 20 18 17 14 13 12 11 10 8 7 7 6 5 4 3 3 3 2 1 1 1 1 2 2 3 3 3 3 3 3 4 5 5 5 5 4
16 17 18 20 20 21 22 22 21 21 21 21 22 21 20 18 16 14 13 12 11 9 8 7 6 5 4 3 2 2 2 2 1 1 1 1 2 2 3 3 3 3 3 3 4 5 5 5 5
15 15 16 18 19 20 21 21 21 22 22 22 23 22 20 19 17 16 14 13 13 12 10 9 8 6 4 4 2 2 2 2 1 2 1 1 1 2 3 3 3 2 2 3 4 4 4 5 5
13 12 14 18 19 19 20 20 21 23 23 23 23 22 20 20 19 17 16 14 13 12 11 11 10 8 6 4 3 2 2 2 2 1 1 1 2 2 2 2 3 3 3 4 4 5 5 5 5
11 11 13 16 18 18 18 19 21 23 23 23 22 21 20 20 19 18 17 15 14 13 12 11 10 9 8 6 4 3 3 2 2 2 2 2 2 2 2 3 3 4 4 5 5 4 5 5 5
9 9 12 13 16 18 19 20 21 21 22 22 22 21 21 19 19 19 18 16 15 14 13 13 11 10 9 7 5 4 3 3 2 2 2 2 3 2 2 3 4 4 4 4 4 4 4 5 5
6 7 10 12 15 18 19 20 20 20 21 21 22 21 20 19 19 19 19 18 16 15 14 13 12 11 10 9 6 5 4 4 3 3 3 3 2 2 3 4 4 4 4 4 4 3 4 4 4
4 6 7 10 13 16 17 18 18 19 20 21 21 21 20 20 20 20 20 19 17 16 15 14 12 11 11 10 8 7 6 5 4 4 4 3 2 3 3 3 3 4 3 3 3 3 4 4 4
6 4 5 7 10 13 15 15 16 17 19 20 20 20 20 21 21 21 20 19 18 17 16 14 13 12 12 11 10 8 6 6 5 4 3 3 3 3 3 3 3 3 3 3 4 4 4 4 4
5 4 3 6 9 11 12 14 14 16 18 18 19 20 20 20 21 21 20 19 18 17 16 14 13 12 12 11 10 9 7 6 5 4 4 3 3 3 2 2 3 3 3 4 4 4 4 4 4
4 2 1 4 7 9 11 13 13 14 16 18 19 19 19 20 20 20 20 19 18 17 16 15 13 12 11 10 10 9 7 5 4 3 3 2 2 2 2 2 2 2 3 4 4 5 4 4 4
6 3 1 3 5 8 9 10 11 13 14 16 18 18 19 19 20 20 19 18 18 17 16 15 13 12 11 10 10 9 7 5 4 3 2 2 2 2 2 2 2 3 3 4 4 5 5 4 4
6 3 1 3 5 7 8 9 10 12 12 14 16 17 18 18 19 19 18 18 17 17 15 14 13 11 10 10 10 9 7 6 5 3 2 2 2 2 3 3 3 3 3 4 4 5 5 5 5
7 4 2 2 4 7 8 8 10 10 11 13 14 16 17 17 18 18 18 17 16 16 15 14 13 12 11 10 9 9 8 6 5 4 2 2 2 3 3 3 3 3 3 4 4 5 5 5 5
10 7 5 4 5 7 8 8 9 9 10 11 12 14 16 16 17 17 17 16 16 15 14 13 13 12 11 10 10 9 8 7 6 4 3 2 2 2 2 2 2 3 3 4 4 5 5 6 7
13 10 9 8 8 8 9 9 9 10 10 11 11 12 14 15 16 16 16 15 15 15 14 14 13 11 10 10 10 10 8 6 6 5 4 3 2 1 1 2 2 3 3 3 4 5 6 7 7
16 13 12 12 12 11 11 11 9 10 9 10 10 11 13 14 14 15 15 14 14 14 14 14 12 11 10 10 10 10 8 6 5 5 4 3 2 1 0 2 2 3 3 3 4 5 6 7 7
17 15 14 14 14 13 13 12 10 9 10 9 9 11 12 12 13 14 14 13 12 12 13 13 12 11 10 9 9 9 8 7 6 5 4 4 3 2 2 2 3 3 4 4 5 6 7 7 7
19 19 17 15 15 15 13 13 12 10 10 9 9 11 11 12 12 12 13 12 11 11 12 12 12 11 11 9 9 8 7 7 5 5 4 3 4 3 3 3 3 4 5 5 5 6 7 8 9
21 20 18 17 16 14 14 15 12 11 10 10 10 10 10 11 11 11 11 10 10 10 10 11 11 11 10 9 8 8 7 6 5 5 5 4 4 4 5 4 4 5 5 6 6 7 8 9 9
20 21 20 18 16 14 13 14 13 12 10 10 10 10 11 10 10 10 9 9 9 9 9 10 10 10 10 10 9 8 7 6 6 6 5 5 5 5 6 6 6 6 7 7 8 9 9 10 10
20 20 20 20 18 17 15 15 13 11 11 10 11 11 11 11 11 10 9 9 9 9 9 10 10 10 10 10 9 8 8 7 7 6 6 6 6 6 6 7 7 7 7 8 8 9 10 10 10
21 19 21 22 21 20 18 15 14 13 11 11 12 12 11 11 11 10 10 10 9 9 9 9 9 10 10 9 8 8 8 8 7 7 7 7 7 8 8 7 8 8 8 9 9 10 10 10 10
22 22 22 23 24 22 20 17 14 14 13 13 13 13 12 11 11 12 12 11 11 10 9 9 9 10 10 9 9 8 8 8 8 8 9 8 8 8 8 8 8 8 9 10 10 10 10 11 11
24 24 24 24 24 24 23 21 18 17 15 15 14 14 14 14 14 13 12 12 12 11 11 11 9 9 9 9 9 9 8 9 9 9 9 9 9 8 9 9 9 9 10 11 12 12 11 11 11

GEFSSGP_500_meanwind_186.txt.gz
Wind_Speed
24 23 24 24 25 23 23 25 25 23 21 19 17 16 15 14 12 11 10 9 7 5 4 5 5 5 6 6 5 5 5 5 4 4 5 5 5 4 4 5 5 6 7 7 6 6 5 5 4
23 24 23 23 24 23 24 25 25 23 21 20 19 18 16 14 13 11 10 9 7 6 5 5 6 6 6 6 5 5 5 5 5 6 5 5 4 4 5 5 5 6 6 6 5 5 4 4 4
23 23 22 23 22 24 24 24 24 23 21 21 20 18 17 15 13 11 10 9 7 6 5 5 6 6 6 6 6 6 5 5 5 5 5 5 6 5 5 6 5 5 5 5 5 5 4 4 3
22 23 22 22 23 24 24 24 24 24 23 21 20 19 17 15 14 12 10 9 7 7 6 6 6 6 6 6 6 6 6 5 5 6 5 5 6 6 6 6 5 5 4 4 4 4 4 3 3
21 22 22 22 23 24 25 24 24 24 22 21 21 19 17 16 14 13 11 9 8 7 7 6 7 6 5 6 6 6 6 5 6 6 5 5 5 5 5 6 5 4 4 4 4 3 4 4 3
20 20 22 23 24 25 25 26 25 24 22 21 20 19 18 16 15 13 12 10 9 8 7 6 6 6 6 6 6 6 6 6 6 6 5 5 5 5 5 4 4 4 4 4 4 3 4 4 4
18 19 22 23 25 25 26 26 26 24 22 22 21 20 19 18 16 15 13 11 10 9 8 8 7 6 6 5 6 6 5 5 5 6 6 5 4 4 4 4 4 3 3 4 4 3 3 3 3
17 19 21 22 24 25 25 26 25 24 23 22 23 22 20 19 17 15 14 13 11 11 10 9 8 6 6 5 5 5 5 5 5 5 5 5 5 4 4 3 3 3 3 3 3 3 3 3 3
15 17 20 22 23 23 24 25 24 24 23 22 23 23 21 19 17 16 15 14 12 12 12 10 9 8 7 5 5 5 4 4 5 5 5 5 4 4 3 3 3 3 3 3 3 3 3 3 4
13 16 18 20 21 23 24 24 24 24 23 23 22 22 22 20 17 16 15 15 14 13 12 11 10 9 8 7 5 4 4 4 4 4 5 5 4 3 4 3 3 3 3 3 3 3 3 3 4
12 14 15 17 19 21 22 23 23 24 24 23 22 22 21 20 18 17 16 16 15 13 13 12 11 10 9 7 6 5 4 3 4 4 5 5 5 4 4 4 3 3 3 3 3 3 3 3 3
10 11 12 14 17 19 20 21 22 23 23 22 22 22 21 20 19 18 17 16 15 14 13 12 12 11 11 9 7 6 5 4 5 5 5 5 4 4 3 4 4 3 3 3 4 3 3 3 3
7 9 10 12 14 16 18 19 20 21 21 21 21 21 21 20 19 18 17 17 16 15 14 13 13 12 11 10 8 6 5 5 5 5 5 5 4 3 3 3 4 3 3 3 3 3 3 3 3
4 6 8 10 12 14 16 17 18 19 19 19 19 20 20 20 20 19 18 18 17 16 15 13 13 12 11 11 10 7 6 5 4 4 4 4 4 3 3 3 4 3 3 3 3 3 3 4 4
3 4 6 8 10 12 13 14 16 17 17 18 18 18 19 20 20 19 19 18 17 16 15 13 12 12 11 11 10 8 6 5 4 3 3 4 4 3 3 3 4 3 3 3 4 4 4 4 4
5 3 3 4 7 8 10 12 13 14 15 16 17 17 17 18 19 19 18 18 17 16 15 14 12 11 11 10 10 8 6 5 4 3 3 3 3 3 3 3 3 3 3 3 4 4 4 4 4
7 4 2 2 3 6 8 9 10 11 12 14 16 16 16 17 18 18 18 18 17 16 15 14 12 11 11 10 9 8 7 6 4 3 2 1 2 2 2 2 3 3 3 4 4 4 5 4 5
9 7 4 2 1 3 5 6 7 8 10 12 13 14 15 16 17 17 17 17 16 16 15 14 12 11 11 11 10 8 7 6 5 3 2 1 0 1 1 2 2 3 3 4 4 5 5 6 6
13 10 8 5 4 4 3 4 5 6 8 10 11 12 14 14 15 16 16 16 15 15 15 14 13 12 11 10 10 9 7 6 4 4 3 1 0 1 2 2 2 2 3 4 5 6 6 6 6
16 13 12 9 8 6 4 3 3 6 7 8 9 10 12 13 13 14 15 15 14 14 14 14 13 12 11 10 9 9 8 7 5 4 3 2 1 2 3 3 2 2 3 4 5 5 6 7 7
20 17 14 13 11 9 7 5 5 6 7 7 7 9 10 11 12 13 13 13 13 13 12 12 12 11 11 10 9 9 8 7 5 5 4 3 2 1 2 3 3 3 4 5 6 6 7 7 8
22 19 17 15 15 12 10 8 6 6 7 8 7 7 9 10 10 11 12 12 12 12 11 12 11 11 11 10 9 9 8 7 6 5 4 4 3 3 3 3 4 5 5 5 6 7 7 8 8
24 23 21 18 17 15 14 12 9 8 8 9 8 7 8 8 9 10 10 10 11 11 10 11 11 10 10 10 9 9 8 7 6 5 4 4 4 4 4 4 4 5 6 6 7 8 8 9 9
26 25 23 21 20 19 16 16 12 10 10 10 9 8 8 8 8 9 9 9 9 9 9 9 9 9 9 9 9 9 8 8 7 7 5 4 4 4 4 5 5 6 7 7 8 9 9 10 11
28 27 26 25 24 22 19 19 16 13 11 11 10 9 8 8 8 8 9 8 9 9 8 9 9 9 9 9 9 9 8 8 8 7 7 6 6 6 6 6 7 7 7 8 9 10 10 11 12
29 28 27 26 25 23 23 22 19 15 13 13 12 11 10 8 8 8 8 9 8 8 8 8 9 9 9 9 9 9 8 8 8 8 8 8 8 8 7 7 8 8 8 9 9 10 10 11 12
30 29 28 27 26 25 25 24 21 18 16 14 13 13 12 10 9 9 9 9 8 8 7 7 8 9 9 9 9 9 9 9 9 9 9 9 9 8 8 8 9 9 9 9 10 10 11 12 13
30 30 29 28 27 26 26 25 22 19 17 15 15 14 13 12 11 10 10 10 9 8 8 8 8 9 9 10 10 10 9 9 10 10 9 10 9 9 9 9 9 9 10 10 10 11 12 12 13
30 30 30 29 28 27 26 24 21 19 18 16 16 15 14 13 13 12 11 10 10 10 9 9 9 9 10 10 10 10 10 10 10 10 10 10 10 10 10 10 9 10 10 11 11 12 12 12 13
30 30 30 30 29 28 27 25 21 19 19 18 17 16 16 15 13 13 11 11 11 11 10 10 10 10 11 11 11 11 11 11 11 11 11 11 11 12 12 12 11 11 11 12 12 12 13 13 14

GEFSSGP_500_meanwind_192.txt.gz
Wind_Speed
22 22 21 21 23 20 18 19 19 18 18 17 15 14 13 12 11 9 8 7 6 5 4 4 5 6 6 6 7 8 9 9 10 9 9 9 9 9 10 10 10 10 10 10 10 10 9 8 8
22 22 22 23 22 18 19 19 19 19 18 17 16 15 15 13 12 10 9 8 7 5 4 4 5 6 6 7 7 8 8 9 9 9 9 10 9 10 10 10 10 11 11 10 10 10 9 8 8
22 22 23 23 21 20 20 20 20 19 19 18 17 16 15 14 13 11 10 8 6 5 4 4 5 6 6 7 7 7 8 7 8 8 9 9 9 10 10 10 10 11 10 9 9 9 8 8 7
21 23 24 23 21 21 21 21 21 21 20 19 18 17 16 15 14 12 11 9 7 6 5 5 5 5 6 6 7 7 7 7 8 9 9 9 9 10 10 10 10 10 9 9 9 8 7 7 6
21 23 23 21 21 22 22 21 21 22 21 20 19 18 17 16 15 13 12 11 9 7 6 5 5 5 5 6 7 7 7 7 8 8 9 10 10 10 10 10 9 9 9 9 8 7 7 7 6
20 21 20 20 21 22 22 22 22 23 22 20 19 19 18 17 16 14 12 12 11 9 7 7 5 5 5 5 6 6 7 8 8 9 9 9 10 10 10 10 9 8 8 8 7 7 7 6 6
18 18 19 20 21 22 22 22 23 23 22 21 20 19 19 18 16 15 14 13 12 10 8 7 7 6 5 5 6 6 7 8 8 9 9 9 9 9 10 9 9 8 8 7 7 7 7 6 6
16 17 18 19 20 21 21 22 23 23 23 22 21 20 20 19 17 16 14 14 13 11 9 8 7 6 6 6 7 7 8 8 8 8 9 8 8 8 8 8 8 8 8 7 7 7 6 6 6
15 16 15 18 19 20 21 22 22 23 23 23 22 22 20 19 18 16 15 14 13 12 10 9 7 6 5 5 6 7 7 7 7 8 9 8 8 7 7 7 8 8 8 7 7 7 6 5 5
13 13 13 16 18 19 21 22 22 22 23 23 23 22 21 20 18 17 15 14 13 12 11 10 8 7 6 6 6 6 6 7 7 7 8 8 7 7 7 7 7 7 7 7 7 6 5 5 5
11 11 11 14 16 18 19 21 21 22 23 22 22 22 21 20 18 17 16 14 13 12 11 10 9 8 7 6 5 6 6 6 6 6 7 7 7 7 6 6 6 6 7 7 6 5 5 5 5
8 9 10 12 13 15 17 19 21 21 21 21 21 21 21 19 18 17 16 15 13 12 11 10 10 9 8 6 5 5 5 5 5 6 6 7 7 6 6 6 6 6 6 6 5 5 5 5 4
5 6 8 9 11 13 15 17 19 20 19 20 20 20 21 19 18 17 16 14 13 12 11 11 10 9 9 7 6 5 4 4 5 5 5 6 6 5 6 5 5 5 5 5 4 4 4 4 4
3 4 5 7 9 10 13 15 17 18 18 18 19 19 19 19 18 17 15 15 13 12 12 11 10 10 9 8 7 6 5 4 4 4 5 5 5 5 5 5 5 5 4 5 5 4 4 4 4
2 1 2 4 6 8 10 13 15 16 16 17 17 18 18 18 17 16 15 14 14 13 12 11 10 10 9 8 8 7 6 5 4 4 4 4 5 5 4 4 5 5 5 5 4 4 4 4 4
5 2 1 2 4 5 7 10 11 13 14 15 16 16 17 16 16 16 15 14 14 13 13 12 11 11 10 9 8 7 7 6 5 4 3 3 3 3 4 5 5 5 5 5 4 4 4 4 4
7 5 4 3 2 3 5 6 8 10 11 13 14 15 15 15 15 14 14 14 14 13 13 13 12 11 10 10 8 7 6 6 6 5 4 3 3 2 2 4 4 4 5 5 4 4 4 4 5
10 9 7 5 3 2 2 4 6 7 9 10 12 13 14 14 13 13 13 12 13 13 13 12 11 10 10 9 9 8 6 6 5 4 3 2 2 2 2 3 3 4 4 5 5 5 5 5 5
13 11 9 8 6 4 2 3 4 5 7 7 9 11 12 13 12 12 12 11 11 12 12 12 11 10 9 9 9 8 7 6 5 5 4 3 2 1 1 2 2 2 3 4 5 5 5 5 5
15 13 11 10 9 7 5 4 4 5 6 6 7 9 10 11 12 11 11 11 11 11 11 11 10 10 9 9 9 8 7 7 5 4 4 4 2 1 0 1 1 1 2 3 4 4 5 6 7
18 16 14 13 11 10 7 6 6 5 6 6 7 8 8 10 11 11 10 10 10 10 10 10 9 9 9 9 8 8 7 7 6 5 5 4 3 2 1 2 2 2 3 3 4 5 6 6 6
20 19 18 15 13 11 9 8 9 7 6 7 7 7 7 8 10 10 10 10 9 9 9 9 9 9 8 8 8 7 7 7 6 6 5 4 4 4 3 3 3 3 3 4 4 5 6 6 7
22 21 20 18 16 14 13 10 10 10 8 8 8 8 7 8 9 9 10 10 9 9 9 9 9 8 8 8 8 8 7 6 7 7 6 5 4 4 4 4 4 3 4 4 5 6 6 7 7
24 23 22 21 19 18 16 14 12 11 10 9 9 9 8 8 9 9 9 9 8 9 8 8 8 8 8 8 8 7 7 7 6 6 6 6 6 5 5 5 5 5 5 5 6 7 7 8 8
26 23 21 20 20 20 19 17 15 13 12 11 11 10 10 9 9 10 9 9 8 8 8 8 8 8 7 7 7 7 7 7 7 6 6 6 7 7 6 6 6 6 6 7 7 7 9 9 10
28 25 23 20 19 18 21 20 17 15 14 14 14 13 12 11 10 11 10 9 9 8 8 8 7 7 7 7 7 7 7 7 7 7 7 7 7 7 7 7 7 8 8 8 8 8 8 9 10
29 27 24 23 22 20 19 20 18 18 16 15 15 15 13 12 11 11 11 10 10 9 9 9 8 8 8 8 7 7 8 8 8 8 8 8 8 8 8 8 8 8 9 9 9 9 9 10 10
30 28 27 25 23 22 21 20 19 19 17 16 16 16 14 14 12 11 11 11 10 10 10 10 10 10 9 8 8 8 8 8 9 9 9 10 10 10 10 9 9 10 10 10 11 11 11 11 10
30 30 29 26 25 23 20 19 19 19 17 16 16 16 16 15 15 14 13 13 12 12 12 12 12 11 11 10 9 9 9 9 9 9 10 11 11 12 12 11 11 12 12 12 12 11 12 12 11
30 29 28 27 26 26 23 21 22 20 18 17 18 17 16 16 16 16 16 15 15 15 14 14 13 13 13 12 11 10 10 11 11 10 11 12 13 13 13 13 13 13 13 14 14 13 12 12 12

GEFSSGP_500_meanwind_198.txt.gz
Wind_Speed
22 24 25 26 28 18 14 13 12 12 11 10 10 9 9 8 7 6 6 6 5 5 4 4 4 4 4 4 4 5 6 7 7 7 8 8 8 8 7 8 9 9 9 9 9 8 8 8 7
22 22 27 30 21 13 14 14 13 14 13 12 11 10 10 9 8 7 6 6 5 5 5 4 4 4 4 4 4 5 5 6 6 6 7 8 7 7 7 8 9 9 9 9 9 8 8 7 7
25 27 30 23 13 13 14 15 15 14 14 13 13 12 11 10 9 8 7 6 6 6 6 5 4 4 4 4 4 4 5 5 5 6 6 7 7 7 8 7 8 9 9 9 8 8 7 6 6
26 31 26 17 13 15 15 15 15 15 15 15 15 14 13 12 11 11 9 8 8 7 7 6 4 3 3 4 4 3 4 5 6 6 7 7 7 8 7 8 9 10 9 9 8 7 7 6 6
27 26 19 14 14 15 16 16 16 16 15 15 16 15 15 14 13 12 11 10 9 8 7 6 4 3 4 3 3 3 4 4 5 6 6 6 7 7 8 9 9 9 8 8 8 7 7 6 6
25 19 13 11 13 14 15 16 17 16 16 16 17 16 16 15 14 13 13 11 10 9 7 7 6 4 4 3 3 3 3 4 4 5 6 6 7 8 8 9 9 9 9 8 7 7 7 6 6
21 16 12 10 12 13 15 16 16 17 17 17 17 17 16 16 15 14 14 14 12 11 9 8 7 5 4 3 3 3 4 4 4 5 6 6 7 8 8 8 8 8 8 7 7 7 7 6 5
15 13 10 9 11 13 14 16 16 17 18 18 18 18 17 17 16 15 15 15 14 12 11 9 8 7 5 3 3 3 4 4 4 4 5 5 6 7 8 8 8 8 7 6 5 6 6 6 5
11 9 9 9 10 12 13 15 17 18 18 19 19 18 17 17 16 16 16 15 15 13 12 11 9 8 6 4 3 3 3 3 3 4 4 5 5 6 7 7 7 7 7 6 5 6 5 5 5
7 7 10 10 10 11 13 16 18 18 19 18 18 18 17 17 17 17 16 16 16 15 14 12 11 9 7 5 3 2 3 3 3 3 4 5 5 5 5 6 6 6 6 6 5 5 5 5 5
5 7 9 9 10 12 14 17 17 16 17 18 18 18 17 17 17 18 17 17 16 15 15 13 12 10 8 6 4 3 2 1 2 3 4 4 4 4 4 5 5 5 5 5 5 5 4 4 4
5 6 7 7 9 11 12 14 15 15 16 17 18 18 18 17 17 18 18 17 16 15 14 14 14 12 9 8 5 4 2 1 1 3 4 4 3 4 4 4 4 4 4 4 4 4 3 4 5
2 5 6 6 8 9 11 12 14 15 16 17 18 18 19 19 18 18 18 17 17 16 15 13 13 13 12 9 7 5 3 2 1 2 2 3 3 3 3 3 3 3 4 3 4 4 4 4 5
1 2 4 5 6 8 10 11 13 14 15 17 18 19 20 19 18 18 17 17 17 16 15 14 13 12 12 11 9 7 6 3 2 2 2 2 2 2 2 2 3 3 4 4 3 3 3 4 4
2 2 3 4 5 7 8 9 10 13 14 15 17 18 19 19 18 17 17 16 16 16 16 14 13 12 12 11 10 9 7 5 4 3 2 1 1 1 1 2 2 2 3 4 3 3 3 4 4
4 4 7 7 5 4 6 8 8 11 12 14 15 16 17 18 18 17 16 16 16 16 15 14 12 12 12 11 10 10 9 7 5 4 2 1 1 1 1 1 2 3 3 4 3 3 3 4 4
7 9 11 10 7 4 4 6 8 9 11 13 14 14 15 16 16 16 16 15 16 16 15 14 12 12 12 12 11 9 9 8 6 5 4 1 0 1 1 2 3 3 3 4 4 3 3 3 3
10 12 12 11 8 4 3 6 9 9 10 11 12 13 14 14 15 15 15 15 15 15 14 14 13 12 12 11 11 10 9 8 7 5 4 3 1 1 1 2 3 3 3 4 4 4 4 4 4
13 14 12 10 9 6 6 7 9 10 11 11 10 11 13 13 13 13 14 14 14 15 14 13 12 12 12 11 10 9 9 8 7 6 5 4 3 2 1 1 2 3 4 4 4 5 5 6 5
14 14 12 10 9 7 8 9 9 10 9 11 11 10 11 11 11 13 13 14 14 14 14 13 12 11 11 11 10 10 9 9 8 7 6 5 4 3 2 2 2 3 3 4 5 5 5 5 6
15 15 13 13 11 10 10 12 12 11 10 9 10 10 10 10 11 11 11 13 13 13 14 14 12 11 11 11 11 10 9 9 8 7 6 6 5 4 3 3 3 4 4 4 4 5 5 5 5
17 15 16 15 13 13 13 15 15 14 13 11 12 11 9 9 10 9 10 11 12 12 12 13 12 11 11 11 11 11 10 9 9 8 7 7 6 6 5 5 4 4 4 4 5 5 6 6 6
19 18 18 17 16 16 16 16 14 16 15 11 10 11 9 8 9 9 9 10 11 11 11 12 12 12 11 11 11 11 10 9 9 8 8 7 7 6 6 6 6 5 4 5 5 6 7 7 7
20 19 18 17 18 19 18 16 17 16 16 16 14 12 13 9 9 10 9 9 10 10 11 11 11 11 10 11 11 11 10 9 8 8 8 8 8 8 7 7 8 7 6 5 6 7 8 8 9
21 18 17 18 20 21 18 17 18 17 18 17 16 14 14 12 11 11 9 10 10 10 10 11 11 11 11 10 11 11 10 9 8 8 8 8 8 8 9 9 9 8 7 7 7 8 8 9 10
21 20 20 20 20 20 18 18 17 16 19 19 17 17 15 13 14 12 11 10 10 11 11 11 11 12 12 11 11 11 11 10 9 8 8 9 9 9 9 10 10 10 10 9 9 9 9 10 10
22 22 20 22 21 22 21 19 20 19 20 18 17 17 16 14 14 14 13 12 11 11 11 11 11 12 12 12 12 12 12 11 10 9 9 10 10 10 10 11 11 11 11 10 10 10 10 10 10
24 22 21 22 23 23 22 21 22 20 18 16 17 18 17 16 16 16 14 13 13 12 11 12 12 13 13 13 13 13 14 13 10 10 11 11 11 11 11 12 12 12 12 11 11 11 11 11 11
23 24 24 25 24 22 22 23 21 23 22 19 18 20 18 16 16 16 16 16 15 14 13 13 14 14 14 14 14 14 14 13 12 12 12 13 13 13 13 13 13 13 13 13 13 13 13 13 13
23 23 24 26 26 25 24 25 24 24 22 20 21 19 19 19 19 19 19 19 18 16 16 16 16 16 15 15 15 15 15 15 14 14 14 14 14 14 14 15 15 16 15 15 15 16 15 15 15

GEFSSGP_500_meanwind_204.txt.gz
Wind_Speed
23 23 22 24 25 25 23 22 21 19 18 17 15 14 13 12 10 8 7 6 6 7 6 4 5 6 7 7 7 7 8 8 8 8 8 8 8 8 8 8 9 9 9 9 8 8 8 8 8
22 22 22 24 25 25 24 23 21 19 19 18 16 14 13 12 11 9 8 7 8 8 7 6 6 7 8 8 7 7 8 8 8 7 7 7 7 7 7 8 9 9 9 8 8 8 8 8 8
21 22 23 24 25 25 25 23 21 21 20 18 17 15 14 13 11 11 10 9 9 8 8 7 7 7 8 8 8 8 8 7 7 7 7 7 7 8 8 8 8 8 8 8 7 8 8 8 7
20 21 22 24 24 24 25 24 22 22 20 19 18 17 15 14 13 12 11 11 10 9 8 7 8 7 8 8 8 7 7 6 6 6 6 7 7 7 8 8 8 8 8 7 7 7 7 7 7
18 20 22 23 24 23 24 24 23 21 20 20 19 18 16 15 14 13 13 12 12 11 10 9 9 8 8 7 7 7 6 5 5 5 6 6 7 7 7 7 8 9 8 8 7 7 7 7 8
16 19 20 22 22 22 23 24 22 21 20 20 20 19 17 17 16 15 14 14 13 12 11 11 10 9 8 7 7 7 6 5 5 5 5 6 6 7 7 7 8 8 8 7 7 7 7 7 7
15 16 19 20 21 21 22 22 22 21 21 20 20 19 18 17 17 16 15 15 13 12 12 11 11 10 8 8 7 6 5 5 5 6 6 6 7 7 7 8 8 7 7 7 7 7 7 7 7
13 15 17 18 19 20 21 22 22 22 22 21 20 19 19 18 18 17 16 16 14 13 13 12 11 10 9 8 7 6 5 5 5 6 6 6 7 8 8 8 8 7 7 7 7 7 7 7 7
12 13 14 16 17 19 20 21 23 23 22 21 20 19 19 19 19 18 17 16 16 14 13 12 12 11 9 8 7 6 5 5 5 4 5 6 7 7 8 8 7 7 7 7 7 7 7 6 7
11 11 13 15 16 19 20 21 22 23 22 21 20 19 19 19 19 19 18 17 17 16 14 13 12 12 10 8 7 6 6 6 5 5 5 6 6 7 7 7 7 7 7 6 6 6 6 6 6
7 9 11 13 16 18 19 21 21 21 21 21 21 20 19 19 19 19 19 18 17 16 15 13 12 11 11 9 7 6 6 6 5 5 5 6 6 7 7 7 7 7 6 6 6 5 6 6 6
5 8 10 11 13 15 16 19 20 20 21 21 21 20 19 19 19 19 19 19 18 17 16 14 13 12 11 10 8 7 6 5 4 5 5 5 6 7 7 6 6 6 5 5 5 5 5 6 6
4 4 6 7 9 12 14 16 17 18 20 20 21 20 19 19 19 18 18 19 18 18 17 15 14 13 11 10 9 8 7 6 5 5 5 5 5 6 6 6 5 5 4 4 4 5 6 6 6
2 2 4 5 6 8 11 13 14 16 18 19 19 19 18 18 18 18 18 19 19 18 17 16 15 14 13 11 10 8 7 6 5 5 4 4 4 4 5 5 4 4 4 4 4 4 5 5 5
5 1 2 5 5 7 8 10 12 14 15 17 17 17 17 17 17 18 18 18 18 18 17 15 15 14 14 13 11 10 8 7 6 6 4 4 3 4 4 4 4 4 4 4 4 4 5 5 5
7 4 3 6 6 8 7 8 11 11 13 15 16 15 16 16 16 17 17 17 17 17 16 15 14 14 14 14 12 11 9 8 7 6 5 3 2 2 3 3 4 4 4 4 4 5 5 5 5
9 7 4 6 7 8 8 7 10 11 11 12 14 14 14 14 14 15 16 16 17 16 16 15 14 13 13 13 12 12 10 9 8 6 4 3 2 2 2 3 3 4 5 5 5 5 5 5 6
11 9 6 6 8 9 9 7 9 9 9 9 11 13 13 13 13 13 14 15 16 15 15 14 13 13 13 13 12 12 10 10 9 7 5 4 3 1 2 2 3 3 4 4 5 6 6 6 6
12 11 8 7 9 10 8 8 8 8 7 8 8 10 11 11 11 11 11 13 14 14 14 13 13 12 12 12 12 11 10 10 9 8 6 5 3 2 1 1 2 2 3 4 5 6 6 7 7
13 11 11 10 10 10 10 10 9 9 8 9 9 9 10 9 9 10 10 10 11 12 12 12 11 11 11 11 11 11 10 10 9 8 7 6 5 4 3 1 1 2 3 4 5 6 6 7 8
15 14 14 13 12 13 13 12 11 12 10 10 11 9 9 8 7 8 8 9 9 9 10 10 10 10 10 10 10 10 9 9 8 8 7 7 6 4 3 2 1 1 2 4 5 6 7 8 8
17 16 15 16 16 15 15 16 13 12 13 12 11 9 9 9 8 7 7 7 8 8 8 9 9 9 9 9 9 8 8 8 8 8 7 7 6 6 4 3 2 2 3 4 4 5 6 7 8
18 17 18 19 19 19 18 19 17 16 16 14 11 9 9 9 9 8 7 6 6 6 6 7 8 8 8 8 7 7 7 7 7 7 7 6 6 6 6 5 3 2 3 4 4 5 5 6 7
19 19 19 20 21 22 21 22 19 17 17 15 13 10 10 10 9 9 8 5 5 6 5 5 6 6 6 7 7 7 6 6 7 6 6 6 6 6 6 6 5 4 4 4 5 5 6 7 8
22 22 22 23 23 23 21 24 22 18 17 16 14 11 12 12 11 10 8 6 5 5 6 5 5 5 6 6 6 6 6 5 6 5 5 5 6 6 6 6 6 6 5 5 6 6 6 7 8
22 23 25 25 25 24 22 24 22 18 17 16 14 14 13 13 12 11 10 8 7 7 6 5 5 5 5 6 6 6 6 5 5 5 5 6 6 6 6 7 7 7 7 7 7 7 7 7 8
23 23 24 26 26 27 25 23 21 18 17 17 16 15 15 14 14 13 11 10 9 8 8 7 7 6 6 6 6 6 6 6 6 6 6 7 7 7 7 8 8 8 9 8 8 8 8 8 8
24 23 24 26 27 28 26 22 20 18 18 18 18 18 16 15 14 14 13 11 10 9 9 10 10 9 8 8 8 8 8 7 7 6 7 7 7 7 8 8 9 9 9 9 9 9 8 8 9
25 26 26 26 27 28 27 24 21 21 20 19 18 19 17 17 17 17 15 14 12 11 11 12 12 11 10 10 10 10 10 9 9 8 9 9 9 9 9 9 10 10 10 10 9 9 9 10 10
28 27 28 28 28 28 29 28 24 23 22 21 21 20 20 20 19 16 16 17 16 14 14 14 13 13 13 12 12 13 13 12 12 11 11 10 10 10 11 11 12 12 13 12 12 11 11 12 13

GEFSSGP_500_meanwind_210.txt.gz
Wind_Speed
23 23 23 23 24 24 23 23 22 21 19 17 16 15 15 13 12 11 9 8 6 4 4 3 4 5 6 6 7 9 10 10 10 10 9 10 10 10 10 11 10 10 9 9 9 8 8 8 7
22 22 22 23 23 24 24 23 23 21 20 18 17 17 16 14 13 11 10 9 7 6 5 4 4 5 6 7 8 10 10 10 10 9 9 9 9 10 10 10 10 10 9 8 8 7 8 7 6
22 22 22 22 23 24 24 24 23 22 21 20 19 18 17 15 13 12 11 9 8 6 6 5 5 5 7 8 8 10 9 9 9 9 9 9 9 9 10 9 9 9 8 7 7 7 7 7 6
22 22 22 22 23 24 24 24 23 22 22 21 20 19 17 16 14 13 11 10 8 8 8 7 6 7 8 8 8 9 8 9 8 8 9 9 8 9 8 8 8 8 8 7 7 7 7 7 7
20 22 22 23 23 24 24 24 23 23 23 21 20 19 17 16 15 14 12 11 9 9 9 9 8 7 8 8 9 9 8 8 8 8 8 8 8 8 7 7 7 8 7 7 7 7 7 7 6
19 20 22 23 23 24 24 24 24 24 23 21 20 19 18 16 16 15 13 12 11 10 10 10 9 9 9 8 8 8 8 7 7 8 8 7 7 6 7 7 6 7 7 7 7 7 7 6 7
18 19 21 23 23 24 24 25 25 23 22 21 20 19 18 17 16 15 13 13 12 11 11 10 10 9 9 9 8 8 8 7 6 7 7 7 7 6 6 6 6 7 7 7 7 7 6 7 7
16 17 20 22 22 23 24 25 25 23 22 21 20 19 18 17 17 16 14 13 13 12 11 10 9 9 9 9 8 8 7 7 6 6 7 7 6 6 6 6 6 6 7 7 7 7 6 6 6
13 15 17 20 21 22 23 24 24 23 22 21 20 19 18 18 17 16 15 14 13 13 12 11 9 9 9 8 8 8 7 7 6 6 6 7 6 6 6 6 6 7 7 6 6 6 6 6 6
11 13 15 17 19 20 21 22 23 23 23 22 21 20 18 18 17 16 16 15 14 13 12 11 10 10 9 8 8 8 7 7 6 6 6 7 7 7 6 6 5 6 7 6 6 5 5 6 5
8 10 11 14 16 17 19 20 21 22 23 22 21 20 19 18 18 17 16 15 14 14 13 11 11 10 9 8 8 8 7 7 6 6 6 6 6 6 6 6 6 6 5 5 5 4 5 5 5
4 7 9 11 13 15 17 18 19 20 21 21 20 20 19 18 18 19 18 17 15 14 13 12 11 10 9 9 8 8 7 7 6 5 6 5 6 6 6 6 6 5 5 4 4 5 5 5 5
2 4 7 9 11 13 14 16 17 18 19 19 19 19 18 18 18 18 18 18 16 14 13 12 11 10 10 10 9 8 8 7 6 5 5 5 5 5 5 5 5 5 4 4 4 4 4 4 5
4 1 3 6 8 10 11 13 14 15 16 17 17 18 18 17 17 17 17 17 16 15 14 13 12 11 10 10 10 9 8 7 6 5 5 5 5 5 5 5 4 4 3 3 3 4 4 4 5
7 4 1 2 5 7 8 10 11 12 14 15 16 16 16 16 16 16 16 16 15 15 14 13 12 11 10 9 8 8 7 6 5 5 5 4 4 4 4 4 3 3 3 3 4 4 4 4 5
10 7 4 2 3 5 6 8 8 9 11 13 13 14 15 15 14 15 15 14 14 14 13 12 12 12 11 9 8 7 7 6 5 4 4 4 3 3 3 3 3 3 4 4 5 5 4 5 5
12 9 7 6 4 4 4 5 6 7 9 11 11 12 12 13 13 13 14 14 13 13 12 11 11 11 11 10 9 7 7 5 5 5 3 3 2 2 2 3 3 3 4 4 5 5 5 5 6
14 13 10 8 6 6 5 4 4 6 8 9 9 9 10 11 13 13 13 14 13 13 11 10 10 10 10 9 8 8 7 7 6 5 3 3 2 1 2 2 2 3 4 5 5 6 6 7 7
17 16 13 10 9 9 7 5 4 6 7 7 8 8 9 10 11 12 12 13 13 12 11 10 10 10 9 9 8 8 8 7 6 5 4 3 1 1 2 3 3 4 4 5 6 7 7 8 8
20 18 16 13 13 12 11 9 7 7 7 7 7 8 8 8 9 10 11 11 11 10 10 10 8 9 8 7 7 7 7 7 7 6 5 4 2 1 1 2 3 4 5 6 6 7 7 7 8
22 20 18 16 16 15 15 13 10 8 7 7 7 8 7 7 6 7 9 10 9 9 8 8 7 7 7 6 6 6 6 6 6 5 4 4 3 3 3 3 4 5 6 6 6 7 8 8 9
23 22 21 20 19 19 18 16 12 11 9 8 7 7 7 7 7 7 8 9 8 8 7 6 6 5 5 5 5 5 4 4 4 4 4 4 3 3 3 4 4 4 6 6 6 6 7 8 9
25 24 24 23 23 22 20 19 15 14 13 11 9 8 8 8 8 8 8 8 8 7 7 6 5 5 4 5 4 3 3 3 3 3 3 3 3 3 3 4 5 5 5 5 6 7 7 8 8
27 25 25 26 25 24 21 21 18 16 16 14 12 10 9 9 9 9 9 9 8 7 7 6 6 6 5 4 5 4 4 4 4 4 3 3 3 4 4 4 5 5 5 5 6 7 7 7 8
28 27 26 27 26 25 23 24 20 18 18 17 16 13 12 12 12 10 10 11 10 9 9 9 8 7 6 6 5 5 6 5 5 5 5 5 5 5 5 5 6 6 7 6 7 7 8 8 8
28 28 28 28 28 26 25 25 22 20 20 19 18 16 14 14 13 12 12 13 12 11 12 11 10 9 8 7 7 7 7 6 6 6 7 7 7 7 7 7 8 8 8 8 8 8 8 9 9
28 29 29 29 28 29 29 28 25 22 21 20 18 17 16 15 13 13 13 14 14 14 13 13 12 12 11 10 9 9 8 9 9 8 8 8 8 8 9 9 10 10 10 10 9 10 10 10 11
29 29 28 29 30 30 30 28 25 23 21 20 19 18 16 16 15 15 15 16 16 15 15 14 14 14 14 13 13 11 11 11 11 11 10 10 10 10 11 11 11 11 11 12 12 12 12 13 13
30 30 30 31 31 32 31 29 26 25 22 21 20 18 17 17 16 17 18 18 17 17 17 16 17 16 16 16 15 14 14 14 14 14 14 13 12 13 13 14 13 13 13 13 14 15 15 15 15
32 32 31 31 31 32 33 31 27 26 25 22 21 20 18 18 18 18 19 20 19 19 18 18 19 20 19 18 18 17 18 19 18 17 16 16 15 15 15 16 15 15 15 15 16 16 16 17 17

GEFSSGP_500_meanwind_216.txt.gz
Wind_Speed
21 21 21 21 23 21 18 18 17 17 16 15 15 14 13 12 10 8 7 6 5 5 5 4 5 6 8 9 10 11 12 12 12 13 14 14 14 14 13 13 13 13 13 13 13 13 12 11 10
21 21 21 23 23 19 19 18 18 18 17 16 16 15 14 13 12 10 8 7 7 6 5 5 5 6 7 8 10 11 11 12 12 13 13 14 13 13 12 12 13 13 13 13 12 12 12 11 10
21 21 22 24 21 19 19 19 19 19 18 17 17 17 16 15 14 12 10 8 8 7 6 6 6 7 7 8 9 10 12 13 12 13 14 13 13 13 12 12 13 14 13 12 11 11 10 11 10
20 21 24 23 21 20 20 19 19 20 19 18 18 18 17 16 15 14 12 10 9 8 8 7 7 7 8 9 10 10 12 12 13 13 12 12 13 13 12 12 13 13 13 12 11 10 9 9 9
19 22 23 21 21 21 21 19 19 20 20 19 19 19 18 17 16 15 13 11 10 9 8 8 8 8 9 10 10 10 10 11 12 12 12 12 12 12 12 11 12 12 12 12 11 10 9 8 9
19 21 20 19 20 21 21 20 20 20 20 20 20 20 19 17 16 15 14 12 10 10 9 8 8 8 9 10 10 10 11 12 12 12 11 11 10 11 11 11 11 11 12 11 11 10 9 9 8
19 20 19 19 20 20 20 21 21 21 21 21 20 20 19 18 16 15 14 12 11 10 9 8 8 9 9 10 10 10 11 11 11 11 11 10 10 9 10 10 10 10 10 10 9 9 9 9 8
16 18 18 18 19 19 19 20 21 21 21 21 20 20 20 18 17 15 14 13 12 10 9 9 9 8 9 9 9 9 10 11 11 10 10 9 9 9 8 8 9 9 10 9 9 8 8 8 8
13 15 14 16 17 18 18 19 20 20 20 21 21 21 20 18 17 16 15 14 12 11 10 9 9 8 9 9 9 9 9 10 10 10 9 9 9 8 8 8 9 8 9 8 8 8 8 7 7
11 12 12 14 15 16 17 18 19 20 20 20 21 21 21 19 18 16 15 14 12 11 10 10 9 9 9 8 8 8 8 9 9 9 9 9 9 8 7 8 8 9 9 8 8 8 8 7 7
8 9 10 12 13 15 16 17 18 20 20 19 19 19 20 20 19 17 16 14 13 11 10 10 9 9 9 8 8 8 8 8 8 7 7 8 8 8 9 8 8 8 8 8 7 7 8 8 7
5 7 7 9 10 12 14 15 17 18 18 18 18 18 19 19 18 17 15 15 13 12 10 10 9 8 8 8 8 8 7 7 6 6 6 6 7 8 7 7 7 7 7 8 7 7 7 7 7
2 3 5 6 8 10 11 12 14 16 16 16 17 17 17 17 18 17 15 14 13 11 10 10 9 8 8 7 7 7 7 6 6 6 6 6 6 5 5 5 5 6 7 7 6 6 6 6 7
2 1 2 3 5 6 9 10 11 13 14 14 15 15 15 17 17 17 16 14 13 11 10 9 8 8 8 7 7 7 6 5 5 5 5 5 5 5 5 5 5 5 5 5 5 6 5 6 6
4 3 2 1 2 4 6 8 10 11 12 13 13 13 14 15 15 16 15 15 14 12 10 9 8 7 7 7 6 6 5 5 5 5 5 5 5 5 5 5 5 5 5 4 4 5 5 5 6
6 5 4 4 2 1 4 6 7 9 10 11 12 12 12 13 13 14 14 14 13 12 10 9 8 7 7 6 6 5 5 4 4 5 5 4 4 4 4 4 4 4 5 5 5 5 5 5 6
9 8 7 7 4 2 1 3 5 7 8 9 11 11 11 12 12 12 12 13 12 12 11 9 9 8 7 6 5 5 4 4 3 4 4 4 4 3 3 3 3 4 5 6 6 6 6 6 6
12 10 10 9 7 5 3 3 4 5 6 7 8 9 9 10 10 10 11 12 12 11 11 9 9 8 6 5 5 4 4 4 4 3 3 3 2 2 1 2 2 3 4 5 6 7 7 7 7
15 13 12 12 10 8 6 5 5 6 6 6 6 7 8 8 9 9 9 10 10 10 10 9 9 8 7 6 4 4 3 4 4 3 2 2 1 1 1 1 2 2 3 5 6 6 7 7 8
16 15 14 14 13 11 9 8 7 7 6 6 6 6 6 7 8 8 8 8 9 9 9 9 8 7 6 6 5 3 3 2 2 2 1 1 0 0 1 1 2 3 3 5 6 7 8 8 8
17 16 16 16 15 13 12 10 9 8 7 6 6 7 6 6 6 6 6 7 7 8 7 7 7 7 6 5 5 4 3 2 1 1 0 1 1 1 2 2 2 3 3 3 5 5 7 8 8
19 18 18 17 16 15 14 12 11 10 9 8 8 8 7 7 7 7 6 7 7 7 7 6 7 7 6 5 4 4 3 2 2 2 2 2 2 3 3 2 3 3 4 4 4 5 6 7 8
22 21 19 18 17 17 16 14 11 12 11 10 10 10 9 9 8 8 7 7 7 7 7 7 7 7 6 5 4 4 3 3 3 3 3 3 3 4 4 4 4 5 5 5 5 5 6 8 8
23 23 22 20 18 19 17 16 14 13 12 11 12 12 11 11 10 10 9 9 9 8 8 8 8 8 8 7 6 5 5 5 5 4 4 5 5 5 5 5 6 6 6 6 7 7 7 8 8
25 23 20 19 19 18 18 17 15 14 13 12 13 14 14 14 14 13 12 11 11 11 10 10 10 9 8 7 8 8 7 7 7 7 7 7 7 7 7 7 7 8 9 9 9 9 9 9 10
25 24 22 20 19 18 20 19 16 15 14 14 14 15 16 16 16 15 14 14 13 13 13 13 12 11 10 9 10 10 9 10 9 10 10 9 9 9 9 9 9 10 10 10 10 10 11 11 11
26 26 24 23 22 20 20 20 19 17 15 15 16 17 16 17 17 17 17 16 15 15 15 15 14 13 12 12 12 12 12 12 12 12 12 12 12 12 11 11 11 11 11 11 11 11 12 12 12
29 27 26 25 23 23 21 20 19 18 17 17 17 18 17 17 18 19 19 18 17 17 16 16 16 14 14 14 15 14 15 15 14 14 15 15 15 14 14 14 14 14 13 13 13 13 13 13 13
29 29 29 27 26 24 22 21 21 21 19 18 18 18 18 18 19 19 18 18 18 19 19 19 19 19 19 17 17 18 17 17 17 17 17 17 17 17 17 17 17 16 16 16 15 15 15 15 15
29 29 29 28 29 27 25 24 24 23 22 20 19 19 19 19 19 20 20 21 21 20 20 20 20 21 22 21 20 20 20 20 21 21 20 20 19 18 19 20 19 19 19 19 18 18 17 17 17

GEFSSGP_500_meanwind_222.txt.gz
Wind_Speed
23 23 23 24 26 21 15 14 13 13 12 12 11 11 10 9 8 7 7 7 6 5 5 3 2 3 4 6 8 8 9 10 9 11 11 12 13 13 13 13 14 14 14 14 13 12 12 11 11
23 21 23 27 23 17 15 15 14 15 14 14 13 12 12 10 9 8 7 7 7 7 6 5 3 3 4 6 8 8 8 9 9 11 11 12 12 13 13 13 13 14 14 13 12 12 11 11 10
23 23 26 24 18 15 14 15 15 15 15 15 14 14 13 12 10 9 9 8 8 8 8 7 5 4 4 6 7 7 8 9 10 11 11 12 12 12 13 13 13 13 12 11 11 11 10 10 9
22 26 26 20 16 15 15 15 15 15 15 15 15 15 14 13 12 11 10 9 9 9 8 8 7 5 5 6 6 7 9 9 10 10 10 11 11 10 11 12 12 12 12 11 11 10 9 9 8
23 24 20 18 15 15 15 16 15 15 16 15 15 15 15 15 13 12 11 10 10 10 9 8 7 6 6 6 7 7 8 9 9 9 10 9 10 9 10 12 11 11 11 11 11 9 8 8 7
23 19 17 15 14 14 15 15 15 15 15 16 16 17 17 16 14 13 12 11 11 10 9 8 7 6 6 8 8 9 9 9 9 9 9 9 9 10 10 11 11 10 10 9 9 9 8 7 7
20 15 13 12 13 14 13 13 14 15 16 17 17 16 16 16 15 14 13 12 11 11 10 8 7 7 7 7 8 9 10 10 9 9 9 9 8 8 8 9 10 9 9 9 9 8 7 7 7
17 13 11 10 11 12 13 13 14 15 16 17 18 17 16 16 15 15 14 13 12 11 10 9 7 7 7 7 7 8 9 9 9 9 8 8 7 8 8 9 9 8 8 8 9 8 6 6 6
13 11 10 9 9 10 12 12 14 15 16 17 17 17 16 16 15 15 15 14 13 12 11 10 8 7 7 7 7 8 7 8 8 8 8 7 7 7 7 8 8 8 8 8 7 7 6 6 6
9 9 9 8 9 9 11 13 14 15 15 16 17 17 17 16 15 15 15 14 14 13 12 11 10 9 8 7 8 7 6 7 7 7 7 7 6 6 6 7 7 7 8 7 7 7 6 6 6
5 6 6 7 7 8 10 12 14 15 15 15 16 16 16 16 16 16 15 15 14 14 13 12 11 9 9 8 7 7 6 6 6 5 5 5 4 5 6 7 7 7 6 7 7 7 7 6 5
3 4 4 5 7 9 10 11 12 13 14 15 15 16 16 16 16 16 16 15 14 13 13 12 11 10 8 8 7 7 6 6 5 5 5 4 4 4 6 6 6 6 6 6 7 6 7 6 6
2 2 3 4 6 7 9 10 10 11 12 14 15 16 17 16 15 15 15 15 14 13 12 11 10 9 8 7 7 7 6 5 5 5 5 5 5 5 5 5 5 5 4 5 6 6 6 6 6
4 3 3 4 5 6 6 7 8 9 10 12 13 15 16 16 15 15 15 14 14 13 12 11 10 9 8 7 6 5 5 4 4 4 4 4 4 3 3 3 3 3 4 6 6 5 5 5 6
5 4 3 4 5 7 6 6 7 8 10 10 12 13 15 16 15 14 14 14 13 13 12 11 11 9 8 7 6 5 5 4 4 4 3 3 2 2 2 2 2 2 4 5 5 5 4 4 5
4 4 6 6 5 8 8 9 9 10 10 9 11 12 13 14 13 13 14 14 13 13 12 12 11 10 8 7 6 6 5 5 4 3 3 2 2 2 1 2 1 1 2 4 4 4 4 4 4
4 7 8 8 7 8 7 10 10 11 10 9 9 10 12 12 11 12 13 13 13 13 12 12 11 11 9 8 7 6 6 4 4 3 3 3 2 1 0 0 1 1 2 3 4 4 4 4 5
8 10 9 9 9 8 8 10 11 11 11 10 9 9 10 10 10 11 11 11 12 12 12 11 11 11 9 8 7 6 6 5 4 3 3 3 2 1 1 1 1 1 1 2 3 4 5 5 5
11 12 12 9 9 10 10 10 10 11 10 10 10 9 8 9 8 9 10 10 10 10 10 10 10 9 9 8 7 6 6 5 4 3 3 2 2 2 1 2 2 2 2 2 3 3 5 5 5
13 14 12 9 11 12 12 12 13 12 10 10 11 10 9 8 8 8 8 9 10 10 10 10 9 9 9 8 7 6 5 5 4 3 4 3 2 2 3 2 3 3 2 2 3 4 5 7 6
15 16 15 13 14 13 14 13 14 14 12 11 11 12 11 9 9 8 8 8 8 9 10 10 10 9 9 8 8 7 6 5 4 4 4 3 3 3 4 4 4 4 4 4 4 5 5 6 7
17 15 16 15 14 15 15 17 17 16 16 13 13 12 12 11 10 9 8 8 7 8 9 10 10 9 9 9 8 8 7 6 5 4 4 4 4 4 5 4 4 4 4 5 5 6 7 7 7
17 16 17 16 16 17 16 17 16 15 16 15 14 13 12 13 12 11 9 8 8 9 9 9 10 9 9 9 9 8 7 7 7 5 5 5 5 5 5 5 6 5 5 6 6 7 8 9 9
18 18 18 17 15 18 17 17 16 16 17 17 15 15 15 14 14 13 11 10 10 10 10 9 10 10 11 10 10 9 8 8 7 7 6 6 6 7 6 7 7 7 7 7 8 9 9 10 10
18 18 17 17 18 19 16 17 19 18 18 17 16 17 18 17 16 15 13 12 11 11 11 10 10 10 10 10 10 10 9 9 9 8 8 8 8 8 8 8 8 9 9 10 10 10 11 11 11
19 19 19 19 19 19 18 19 19 20 18 18 18 19 19 18 17 16 15 14 14 13 13 12 11 11 11 11 11 11 11 11 11 10 11 11 10 10 10 10 10 10 11 12 11 11 11 12 13
21 20 19 21 22 22 20 20 21 20 19 19 19 19 18 17 19 18 17 17 17 16 15 14 13 13 13 13 13 12 12 12 13 13 13 13 13 13 12 12 12 12 12 13 13 12 13 13 13
23 22 21 22 24 23 21 22 23 23 22 22 20 19 19 19 20 20 20 19 19 18 18 17 15 15 14 15 15 15 15 15 16 16 15 15 15 15 15 14 14 14 14 15 15 14 14 15 15
23 24 25 25 24 23 23 24 24 24 23 22 21 20 21 20 21 23 22 21 19 18 18 17 17 17 16 16 17 17 17 17 18 18 18 17 18 18 17 16 15 15 16 16 16 16 16 16 17
24 25 25 26 26 25 24 26 25 25 25 25 25 22 20 21 23 24 22 21 21 21 21 19 19 19 19 18 18 19 19 19 20 20 20 19 20 20 20 18 17 18 18 18 19 19 18 18 18